Time,TemperatureF,DewpointF,PressureIn,WindDirection,WindDirectionDegrees,WindSpeedMPH,WindSpeedGustMPH,Humidity,HourlyPrecipIn,Conditions,Clouds,dailyrainin,SoftwareType,DateUTC
2013-05-03 00:02:00,36.0,28.8,30.65,NNE,22,5.0,8.1,75,0.00,RA,,0.00,WeatherDisplay:10.37,2013-05-03 05:02:00,
2013-05-03 00:03:00,36.0,28.8,30.65,North,360,4.7,6.9,75,0.00,RA,,0.00,WeatherDisplay:10.37,2013-05-03 05:03:00,
2013-05-03 00:04:00,36.0,28.8,30.65,North,360,5.4,6.9,75,0.00,RA,,0.00,WeatherDisplay:10.37,2013-05-03 05:04:00,
2013-05-03 00:08:00,36.0,29.2,30.65,NNW,337,7.1,10.0,76,0.00,RA,,0.00,WeatherDisplay:10.37,2013-05-03 05:08:00,
2013-05-03 00:09:00,36.0,29.2,30.65,NNW,337,7.4,10.4,76,0.00,RA,,0.00,WeatherDisplay:10.37,2013-05-03 05:09:00,
2013-05-03 00:13:00,36.0,29.2,30.65,NNW,337,6.7,8.1,76,0.00,CLR,,0.00,WeatherDisplay:10.37,2013-05-03 05:13:00,
2013-05-03 00:14:00,36.0,29.2,30.65,NNW,337,7.2,9.2,76,0.00,CLR,,0.00,WeatherDisplay:10.37,2013-05-03 05:14:00,
2013-05-03 00:18:00,36.0,28.8,30.65,NNW,337,4.4,7.0,75,0.00,CLR,,0.00,WeatherDisplay:10.37,2013-05-03 05:18:00,
2013-05-03 00:19:00,36.0,28.8,30.65,North,360,5.3,6.9,75,0.00,CLR,,0.00,WeatherDisplay:10.37,2013-05-03 05:19:00,
2013-05-03 00:20:00,36.0,29.2,30.65,North,360,3.1,4.6,76,0.00,CLR,,0.00,WeatherDisplay:10.37,2013-05-03 05:20:00,
2013-05-03 00:23:00,36.0,29.2,30.65,North,360,6.4,8.1,76,0.00,CLR,,0.00,WeatherDisplay:10.37,2013-05-03 05:23:00,
2013-05-03 00:24:00,36.0,29.2,30.65,NNW,337,6.2,8.1,76,0.00,CLR,,0.00,WeatherDisplay:10.37,2013-05-03 05:24:00,
2013-05-03 00:25:00,36.0,29.2,30.65,North,360,6.6,9.2,76,0.00,CLR,,0.00,WeatherDisplay:10.37,2013-05-03 05:25:00,
2013-05-03 00:28:00,36.0,29.2,30.64,NNE,22,5.4,6.9,76,0.00,CLR,,0.00,WeatherDisplay:10.37,2013-05-03 05:28:00,
2013-05-03 00:29:00,36.0,29.2,30.64,WSW,247,3.6,8.1,76,0.00,CLR,,0.00,WeatherDisplay:10.37,2013-05-03 05:29:00,
2013-05-03 00:30:00,35.0,28.5,30.64,NNE,22,3.3,6.9,77,0.00,CLR,,0.00,WeatherDisplay:10.37,2013-05-03 05:30:00,
2013-05-03 00:33:00,35.0,28.5,30.64,North,360,4.5,6.0,77,0.00,CLR,,0.00,WeatherDisplay:10.37,2013-05-03 05:33:00,
2013-05-03 00:34:00,35.0,28.5,30.64,NNE,22,5.2,8.0,77,0.00,CLR,,0.00,WeatherDisplay:10.37,2013-05-03 05:34:00,
2013-05-03 00:35:00,35.0,28.5,30.64,WSW,247,6.0,9.2,77,0.00,CLR,,0.00,WeatherDisplay:10.37,2013-05-03 05:35:00,
2013-05-03 00:38:00,35.0,28.8,30.65,North,360,6.1,8.1,78,0.00,CLR,,0.00,WeatherDisplay:10.37,2013-05-03 05:38:00,
2013-05-03 00:39:00,35.0,28.8,30.65,North,360,5.8,8.1,78,0.00,CLR,,0.00,WeatherDisplay:10.37,2013-05-03 05:39:00,
2013-05-03 00:40:00,35.0,28.8,30.65,North,360,6.4,8.1,78,0.00,CLR,,0.00,WeatherDisplay:10.37,2013-05-03 05:40:00,
2013-05-03 00:44:00,35.0,29.1,30.65,NNW,337,4.3,5.8,79,0.00,CLR,,0.00,WeatherDisplay:10.37,2013-05-03 05:44:00,
2013-05-03 00:45:00,35.0,29.1,30.65,North,360,5.1,6.9,79,0.00,CLR,,0.00,WeatherDisplay:10.37,2013-05-03 05:45:00,
2013-05-03 00:49:00,35.0,29.1,30.64,NNE,22,5.8,8.1,79,0.00,CLR,,0.00,WeatherDisplay:10.37,2013-05-03 05:49:00,
2013-05-03 00:50:00,35.0,29.1,30.64,WSW,247,3.5,8.1,79,0.00,CLR,,0.00,WeatherDisplay:10.37,2013-05-03 05:50:00,
2013-05-03 00:54:00,35.0,29.1,30.64,NNE,22,4.9,8.1,79,0.00,CLR,,0.00,WeatherDisplay:10.37,2013-05-03 05:54:00,
2013-05-03 00:55:00,35.0,29.1,30.64,NNE,22,4.4,5.8,79,0.00,CLR,,0.00,WeatherDisplay:10.37,2013-05-03 05:55:00,
2013-05-03 00:56:00,35.0,29.1,30.64,North,360,4.9,5.8,79,0.00,CLR,,0.00,WeatherDisplay:10.37,2013-05-03 05:56:00,
2013-05-03 00:59:00,35.0,29.5,30.63,NNW,337,5.4,10.0,80,0.00,CLR,,0.00,WeatherDisplay:10.37,2013-05-03 05:59:00,
2013-05-03 01:00:00,35.0,29.1,30.63,NNW,337,6.8,11.5,79,0.00,CLR,,0.00,WeatherDisplay:10.37,2013-05-03 06:00:00,
2013-05-03 01:01:00,35.0,29.1,30.63,NNE,22,6.8,11.5,79,0.00,CLR,,0.00,WeatherDisplay:10.37,2013-05-03 06:01:00,
2013-05-03 01:04:00,35.0,29.1,30.63,North,360,8.0,9.2,79,0.00,CLR,,0.00,WeatherDisplay:10.37,2013-05-03 06:04:00,
2013-05-03 01:05:00,35.0,29.1,30.63,North,360,7.2,9.2,79,0.00,CLR,,0.00,WeatherDisplay:10.37,2013-05-03 06:05:00,
2013-05-03 01:06:00,35.0,29.1,30.63,NNE,22,7.0,8.1,79,0.00,CLR,,0.00,WeatherDisplay:10.37,2013-05-03 06:06:00,
2013-05-03 01:09:00,35.0,29.1,30.63,North,360,7.7,11.5,79,0.00,CLR,,0.00,WeatherDisplay:10.37,2013-05-03 06:09:00,
2013-05-03 01:10:00,35.0,29.1,30.63,NNE,22,7.8,10.4,79,0.00,CLR,,0.00,WeatherDisplay:10.37,2013-05-03 06:10:00,
2013-05-03 01:11:00,35.0,29.1,30.63,NNE,22,8.2,10.4,79,0.00,CLR,,0.00,WeatherDisplay:10.37,2013-05-03 06:11:00,
2013-05-03 01:14:00,35.0,29.1,30.63,NNE,22,6.2,10.4,79,0.00,CLR,,0.00,WeatherDisplay:10.37,2013-05-03 06:14:00,
2013-05-03 01:16:00,35.0,29.1,30.63,North,360,7.2,10.4,79,0.00,CLR,,0.00,WeatherDisplay:10.37,2013-05-03 06:16:00,
2013-05-03 01:20:00,35.0,28.8,30.63,North,360,7.1,10.4,78,0.00,CLR,,0.00,WeatherDisplay:10.37,2013-05-03 06:20:00,
2013-05-03 01:21:00,35.0,28.8,30.63,NNW,337,8.0,10.4,78,0.00,CLR,,0.00,WeatherDisplay:10.37,2013-05-03 06:21:00,
2013-05-03 01:26:00,35.0,28.8,30.63,NNE,22,7.5,11.5,78,0.00,CLR,,0.00,WeatherDisplay:10.37,2013-05-03 06:26:00,
2013-05-03 01:27:00,35.0,28.8,30.63,NNW,337,7.5,9.2,78,0.00,CLR,,0.00,WeatherDisplay:10.37,2013-05-03 06:27:00,
2013-05-03 01:31:00,35.0,28.8,30.63,NNW,337,8.9,13.0,78,0.00,CLR,,0.00,WeatherDisplay:10.37,2013-05-03 06:31:00,
2013-05-03 01:32:00,35.0,28.8,30.63,North,360,9.0,12.7,78,0.00,CLR,,0.00,WeatherDisplay:10.37,2013-05-03 06:32:00,
2013-05-03 01:36:00,35.0,28.5,30.62,NNE,22,6.8,11.5,77,0.00,CLR,,0.00,WeatherDisplay:10.37,2013-05-03 06:36:00,
2013-05-03 01:37:00,35.0,28.5,30.62,North,360,8.8,11.5,77,0.00,CLR,,0.00,WeatherDisplay:10.37,2013-05-03 06:37:00,
2013-05-03 01:41:00,35.0,28.5,30.62,NNW,337,8.8,10.4,77,0.00,CLR,,0.00,WeatherDisplay:10.37,2013-05-03 06:41:00,
2013-05-03 01:42:00,35.0,28.5,30.62,NNE,22,8.3,11.5,77,0.00,CLR,,0.00,WeatherDisplay:10.37,2013-05-03 06:42:00,
2013-05-03 01:46:00,35.0,28.5,30.62,NNE,22,8.5,11.5,77,0.00,CLR,,0.00,WeatherDisplay:10.37,2013-05-03 06:46:00,
2013-05-03 01:47:00,34.0,27.9,30.62,NNE,22,8.1,10.4,78,0.00,CLR,,0.00,WeatherDisplay:10.37,2013-05-03 06:47:00,
2013-05-03 01:52:00,34.0,28.2,30.62,NNE,22,6.7,9.2,79,0.00,CLR,,0.00,WeatherDisplay:10.37,2013-05-03 06:52:00,
2013-05-03 01:57:00,34.0,28.5,30.61,NNE,22,2.8,6.9,80,0.00,CLR,,0.00,WeatherDisplay:10.37,2013-05-03 06:57:00,
2013-05-03 01:58:00,34.0,28.5,30.61,North,360,4.4,5.8,80,0.00,CLR,,0.00,WeatherDisplay:10.37,2013-05-03 06:58:00,
2013-05-03 02:02:00,33.0,28.1,30.61,NNE,22,7.9,10.4,82,0.00,CLR,,0.00,WeatherDisplay:10.37,2013-05-03 07:02:00,
2013-05-03 02:03:00,33.0,28.1,30.61,NNE,22,7.5,9.2,82,0.00,CLR,,0.00,WeatherDisplay:10.37,2013-05-03 07:03:00,
2013-05-03 02:07:00,33.0,28.1,30.62,NNW,337,7.0,10.4,82,0.00,CLR,,0.00,WeatherDisplay:10.37,2013-05-03 07:07:00,
2013-05-03 02:08:00,33.0,28.1,30.62,NNW,337,7.9,10.4,82,0.00,CLR,,0.00,WeatherDisplay:10.37,2013-05-03 07:08:00,
2013-05-03 02:09:00,33.0,28.1,30.62,NNW,337,6.8,10.4,82,0.00,CLR,,0.00,WeatherDisplay:10.37,2013-05-03 07:09:00,
2013-05-03 02:12:00,33.0,28.1,30.62,NNW,337,7.1,10.4,82,0.00,CLR,,0.00,WeatherDisplay:10.37,2013-05-03 07:12:00,
2013-05-03 02:13:00,33.0,28.1,30.62,NNW,337,8.0,11.5,82,0.00,CLR,,0.00,WeatherDisplay:10.37,2013-05-03 07:13:00,
2013-05-03 02:15:00,33.0,28.1,30.62,NNW,337,8.7,12.7,82,0.00,CLR,,0.00,WeatherDisplay:10.37,2013-05-03 07:15:00,
2013-05-03 02:17:00,33.0,28.1,30.62,North,360,7.9,11.5,82,0.00,CLR,,0.00,WeatherDisplay:10.37,2013-05-03 07:17:00,
2013-05-03 02:18:00,33.0,28.1,30.62,North,360,8.1,11.5,82,0.00,CLR,,0.00,WeatherDisplay:10.37,2013-05-03 07:18:00,
2013-05-03 02:20:00,33.0,28.1,30.62,NNW,337,3.4,9.2,82,0.00,CLR,,0.00,WeatherDisplay:10.37,2013-05-03 07:20:00,
2013-05-03 02:23:00,33.0,28.1,30.62,NNW,337,8.0,11.5,82,0.00,CLR,,0.00,WeatherDisplay:10.37,2013-05-03 07:23:00,
2013-05-03 02:24:00,33.0,28.1,30.62,NNW,337,9.0,10.4,82,0.00,CLR,,0.00,WeatherDisplay:10.37,2013-05-03 07:24:00,
2013-05-03 02:26:00,33.0,28.1,30.61,NNW,337,8.0,11.5,82,0.00,CLR,,0.00,WeatherDisplay:10.37,2013-05-03 07:26:00,
2013-05-03 02:28:00,33.0,28.1,30.61,NNW,337,7.7,9.2,82,0.00,CLR,,0.00,WeatherDisplay:10.37,2013-05-03 07:28:00,
2013-05-03 02:29:00,33.0,28.1,30.61,NNW,337,7.9,9.2,82,0.00,CLR,,0.00,WeatherDisplay:10.37,2013-05-03 07:29:00,
2013-05-03 02:31:00,33.0,28.1,30.61,NNW,337,7.0,10.0,82,0.00,CLR,,0.00,WeatherDisplay:10.37,2013-05-03 07:31:00,
2013-05-03 02:33:00,33.0,28.1,30.61,NNW,337,6.3,9.2,82,0.00,CLR,,0.00,WeatherDisplay:10.37,2013-05-03 07:33:00,
2013-05-03 02:34:00,33.0,28.4,30.61,NNW,337,6.1,9.2,83,0.00,CLR,,0.00,WeatherDisplay:10.37,2013-05-03 07:34:00,
2013-05-03 02:35:00,33.0,28.4,30.61,NNW,337,6.7,9.2,83,0.00,CLR,,0.00,WeatherDisplay:10.37,2013-05-03 07:35:00,
2013-05-03 02:36:00,33.0,28.4,30.61,NNW,337,5.9,8.1,83,0.00,CLR,,0.00,WeatherDisplay:10.37,2013-05-03 07:36:00,
2013-05-03 02:38:00,33.0,28.7,30.61,NNW,337,8.2,10.4,84,0.00,CLR,,0.00,WeatherDisplay:10.37,2013-05-03 07:38:00,
2013-05-03 02:39:00,33.0,28.7,30.61,NNW,337,7.7,10.0,84,0.00,CLR,,0.00,WeatherDisplay:10.37,2013-05-03 07:39:00,
2013-05-03 02:40:00,33.0,28.7,30.61,NNW,337,7.1,10.4,84,0.00,CLR,,0.00,WeatherDisplay:10.37,2013-05-03 07:40:00,
2013-05-03 02:41:00,33.0,28.7,30.61,NNW,337,6.8,9.2,84,0.00,CLR,,0.00,WeatherDisplay:10.37,2013-05-03 07:41:00,
2013-05-03 02:43:00,32.0,28.0,30.61,North,360,6.8,9.2,85,0.00,CLR,,0.00,WeatherDisplay:10.37,2013-05-03 07:43:00,
2013-05-03 02:44:00,32.0,28.0,30.61,North,360,6.6,8.1,85,0.00,CLR,,0.00,WeatherDisplay:10.37,2013-05-03 07:44:00,
2013-05-03 02:46:00,33.0,28.7,30.61,North,360,6.8,9.2,84,0.00,CLR,,0.00,WeatherDisplay:10.37,2013-05-03 07:46:00,
2013-05-03 02:49:00,32.0,28.0,30.61,NNW,337,7.9,11.5,85,0.00,CLR,,0.00,WeatherDisplay:10.37,2013-05-03 07:49:00,
2013-05-03 02:50:00,32.0,28.0,30.61,NNW,337,8.2,10.4,85,0.00,CLR,,0.00,WeatherDisplay:10.37,2013-05-03 07:50:00,
2013-05-03 02:51:00,32.0,28.0,30.61,NNW,337,6.7,10.0,85,0.00,CLR,,0.00,WeatherDisplay:10.37,2013-05-03 07:51:00,
2013-05-03 02:52:00,32.0,28.0,30.61,NNW,337,7.6,10.4,85,0.00,CLR,,0.00,WeatherDisplay:10.37,2013-05-03 07:52:00,
2013-05-03 02:54:00,32.0,28.3,30.61,NNW,337,4.1,10.0,86,0.00,CLR,,0.00,WeatherDisplay:10.37,2013-05-03 07:54:00,
2013-05-03 02:55:00,32.0,28.3,30.61,North,360,8.8,10.4,86,0.00,CLR,,0.00,WeatherDisplay:10.37,2013-05-03 07:55:00,
2013-05-03 02:56:00,32.0,28.0,30.61,WSW,247,7.1,10.4,85,0.00,CLR,,0.00,WeatherDisplay:10.37,2013-05-03 07:56:00,
2013-05-03 02:58:00,32.0,28.0,30.61,North,360,6.6,10.4,85,0.00,CLR,,0.00,WeatherDisplay:10.37,2013-05-03 07:58:00,
2013-05-03 02:59:00,32.0,28.3,30.61,NNW,337,7.6,9.2,86,0.00,CLR,,0.00,WeatherDisplay:10.37,2013-05-03 07:59:00,
2013-05-03 03:00:00,32.0,28.3,30.61,NNW,337,6.6,9.2,86,0.00,CLR,,0.00,WeatherDisplay:10.37,2013-05-03 08:00:00,
2013-05-03 03:01:00,32.0,28.3,30.61,NNW,337,6.8,8.1,86,0.00,CLR,,0.00,WeatherDisplay:10.37,2013-05-03 08:01:00,
2013-05-03 03:03:00,32.0,28.3,30.61,NNW,337,6.9,9.2,86,0.00,CLR,,0.00,WeatherDisplay:10.37,2013-05-03 08:03:00,
2013-05-03 03:04:00,32.0,28.3,30.61,NNW,337,7.6,9.2,86,0.00,CLR,,0.00,WeatherDisplay:10.37,2013-05-03 08:04:00,
2013-05-03 03:05:00,32.0,28.3,30.61,North,360,3.5,9.2,86,0.00,CLR,,0.00,WeatherDisplay:10.37,2013-05-03 08:05:00,
2013-05-03 03:07:00,32.0,28.3,30.61,NNW,337,6.5,9.2,86,0.00,CLR,,0.00,WeatherDisplay:10.37,2013-05-03 08:07:00,
2013-05-03 03:08:00,32.0,28.6,30.61,NNW,337,6.8,9.0,87,0.00,CLR,,0.00,WeatherDisplay:10.37,2013-05-03 08:08:00,
2013-05-03 03:09:00,32.0,28.6,30.61,NNW,337,6.5,9.2,87,0.00,CLR,,0.00,WeatherDisplay:10.37,2013-05-03 08:09:00,
2013-05-03 03:10:00,32.0,28.6,30.61,NNW,337,8.3,9.0,87,0.00,CLR,,0.00,WeatherDisplay:10.37,2013-05-03 08:10:00,
2013-05-03 03:12:00,32.0,28.6,30.61,NNW,337,9.1,11.5,87,0.00,CLR,,0.00,WeatherDisplay:10.37,2013-05-03 08:12:00,
2013-05-03 03:13:00,32.0,28.6,30.61,NNW,337,8.2,11.5,87,0.00,CLR,,0.00,WeatherDisplay:10.37,2013-05-03 08:13:00,
2013-05-03 03:14:00,32.0,28.3,30.61,NNW,337,8.3,10.4,86,0.00,CLR,,0.00,WeatherDisplay:10.37,2013-05-03 08:14:00,
2013-05-03 03:16:00,32.0,28.3,30.61,NNW,337,8.5,10.4,86,0.00,CLR,,0.00,WeatherDisplay:10.37,2013-05-03 08:16:00,
2013-05-03 03:17:00,32.0,28.3,30.61,NNW,337,8.9,11.5,86,0.00,CLR,,0.00,WeatherDisplay:10.37,2013-05-03 08:17:00,
2013-05-03 03:18:00,32.0,28.3,30.61,NNW,337,8.2,12.7,86,0.00,CLR,,0.00,WeatherDisplay:10.37,2013-05-03 08:18:00,
2013-05-03 03:19:00,32.0,28.3,30.61,NNW,337,7.4,11.5,86,0.00,CLR,,0.00,WeatherDisplay:10.37,2013-05-03 08:19:00,
2013-05-03 03:20:00,32.0,28.3,30.61,NNW,337,7.5,11.5,86,0.00,CLR,,0.00,WeatherDisplay:10.37,2013-05-03 08:20:00,
2013-05-03 03:22:00,32.0,28.3,30.61,NNW,337,9.6,12.7,86,0.00,CLR,,0.00,WeatherDisplay:10.37,2013-05-03 08:22:00,
2013-05-03 03:23:00,32.0,28.3,30.61,NNW,337,10.9,13.0,86,0.00,CLR,,0.00,WeatherDisplay:10.37,2013-05-03 08:23:00,
2013-05-03 03:25:00,32.0,28.3,30.61,NNW,337,10.7,11.5,86,0.00,CLR,,0.00,WeatherDisplay:10.37,2013-05-03 08:25:00,
2013-05-03 03:27:00,32.0,28.0,30.60,NNW,337,10.0,12.7,85,0.00,CLR,,0.00,WeatherDisplay:10.37,2013-05-03 08:27:00,
2013-05-03 03:28:00,32.0,28.0,30.60,WSW,247,10.7,13.8,85,0.00,CLR,,0.00,WeatherDisplay:10.37,2013-05-03 08:28:00,
2013-05-03 03:30:00,32.0,28.0,30.60,NNW,337,11.8,16.1,85,0.00,CLR,,0.00,WeatherDisplay:10.37,2013-05-03 08:30:00,
2013-05-03 03:32:00,32.0,28.0,30.60,NNW,337,8.4,11.5,85,0.00,CLR,,0.00,WeatherDisplay:10.37,2013-05-03 08:32:00,
2013-05-03 03:33:00,32.0,28.0,30.60,NNW,337,10.1,16.1,85,0.00,CLR,,0.00,WeatherDisplay:10.37,2013-05-03 08:33:00,
2013-05-03 03:34:00,32.0,28.0,30.60,North,360,10.2,12.0,85,0.00,CLR,,0.00,WeatherDisplay:10.37,2013-05-03 08:34:00,
2013-05-03 03:35:00,32.0,28.0,30.60,NNW,337,11.5,13.8,85,0.00,CLR,,0.00,WeatherDisplay:10.37,2013-05-03 08:35:00,
2013-05-03 03:38:00,32.0,28.0,30.59,North,360,9.6,11.5,85,0.00,CLR,,0.00,WeatherDisplay:10.37,2013-05-03 08:38:00,
2013-05-03 03:39:00,32.0,28.0,30.59,NNW,337,10.3,12.7,85,0.00,CLR,,0.00,WeatherDisplay:10.37,2013-05-03 08:39:00,
2013-05-03 03:40:00,32.0,28.0,30.59,North,360,12.8,17.3,85,0.00,CLR,,0.00,WeatherDisplay:10.37,2013-05-03 08:40:00,
2013-05-03 03:43:00,32.0,28.0,30.59,NNW,337,10.5,13.8,85,0.00,CLR,,0.00,WeatherDisplay:10.37,2013-05-03 08:43:00,
2013-05-03 03:44:00,32.0,28.0,30.59,NNW,337,9.9,12.7,85,0.00,CLR,,0.00,WeatherDisplay:10.37,2013-05-03 08:44:00,
2013-05-03 03:45:00,32.0,28.0,30.59,NNW,337,10.4,12.0,85,0.00,CLR,,0.00,WeatherDisplay:10.37,2013-05-03 08:45:00,
2013-05-03 03:46:00,32.0,28.0,30.59,NNE,22,12.8,15.0,85,0.00,CLR,,0.00,WeatherDisplay:10.37,2013-05-03 08:46:00,
2013-05-03 03:48:00,32.0,28.0,30.59,NNW,337,10.5,15.0,85,0.00,CLR,,0.00,WeatherDisplay:10.37,2013-05-03 08:48:00,
2013-05-03 03:49:00,32.0,28.0,30.59,NNW,337,11.9,16.0,85,0.00,CLR,,0.00,WeatherDisplay:10.37,2013-05-03 08:49:00,
2013-05-03 03:50:00,32.0,28.0,30.59,NNW,337,12.0,17.3,85,0.00,CLR,,0.00,WeatherDisplay:10.37,2013-05-03 08:50:00,
2013-05-03 03:51:00,32.0,28.0,30.59,NNW,337,9.1,15.0,85,0.00,CLR,,0.00,WeatherDisplay:10.37,2013-05-03 08:51:00,
2013-05-03 03:53:00,32.0,28.0,30.59,North,360,11.2,15.0,85,0.00,CLR,,0.00,WeatherDisplay:10.37,2013-05-03 08:53:00,
2013-05-03 03:54:00,32.0,28.0,30.59,NNW,337,10.0,13.8,85,0.00,CLR,,0.00,WeatherDisplay:10.37,2013-05-03 08:54:00,
2013-05-03 03:55:00,32.0,28.0,30.59,NNE,22,9.5,11.5,85,0.00,CLR,,0.00,WeatherDisplay:10.37,2013-05-03 08:55:00,
2013-05-03 03:56:00,32.0,28.0,30.59,NNW,337,10.3,11.5,85,0.00,CLR,,0.00,WeatherDisplay:10.37,2013-05-03 08:56:00,
2013-05-03 03:58:00,32.0,28.0,30.59,NNW,337,6.0,16.1,85,0.00,CLR,,0.00,WeatherDisplay:10.37,2013-05-03 08:58:00,
2013-05-03 03:59:00,32.0,28.3,30.59,NNW,337,8.0,15.0,86,0.00,CLR,,0.00,WeatherDisplay:10.37,2013-05-03 08:59:00,
2013-05-03 04:00:00,32.0,28.3,30.59,NNW,337,11.6,15.0,86,0.00,CLR,,0.00,WeatherDisplay:10.37,2013-05-03 09:00:00,
2013-05-03 04:01:00,32.0,28.3,30.59,NNW,337,11.6,18.4,86,0.00,CLR,,0.00,WeatherDisplay:10.37,2013-05-03 09:01:00,
2013-05-03 04:04:00,32.0,28.3,30.59,NNW,337,10.3,15.0,86,0.00,CLR,,0.00,WeatherDisplay:10.37,2013-05-03 09:04:00,
2013-05-03 04:05:00,32.0,28.3,30.59,North,360,11.7,17.0,86,0.00,CLR,,0.00,WeatherDisplay:10.37,2013-05-03 09:05:00,
2013-05-03 04:07:00,32.0,28.3,30.58,NNW,337,11.8,13.8,86,0.00,CLR,,0.00,WeatherDisplay:10.37,2013-05-03 09:07:00,
2013-05-03 04:09:00,32.0,28.3,30.58,North,360,8.8,11.5,86,0.00,CLR,,0.00,WeatherDisplay:10.37,2013-05-03 09:09:00,
2013-05-03 04:10:00,32.0,28.3,30.58,North,360,8.9,12.7,86,0.00,CLR,,0.00,WeatherDisplay:10.37,2013-05-03 09:10:00,
2013-05-03 04:12:00,32.0,28.3,30.58,NNW,337,10.9,13.8,86,0.00,CLR,,0.00,WeatherDisplay:10.37,2013-05-03 09:12:00,
2013-05-03 04:14:00,32.0,28.3,30.58,NNW,337,10.3,15.0,86,0.00,CLR,,0.00,WeatherDisplay:10.37,2013-05-03 09:14:00,
2013-05-03 04:15:00,32.0,28.3,30.58,NNW,337,11.1,15.0,86,0.00,CLR,,0.00,WeatherDisplay:10.37,2013-05-03 09:15:00,
2013-05-03 04:17:00,32.0,28.3,30.58,North,360,9.7,18.4,86,0.00,CLR,,0.00,WeatherDisplay:10.37,2013-05-03 09:17:00,
2013-05-03 04:19:00,32.0,28.3,30.58,NNW,337,7.8,18.0,86,0.00,CLR,,0.00,WeatherDisplay:10.37,2013-05-03 09:19:00,
2013-05-03 04:20:00,32.0,28.3,30.58,NNW,337,12.1,19.6,86,0.00,CLR,,0.00,WeatherDisplay:10.37,2013-05-03 09:20:00,
2013-05-03 04:21:00,32.0,28.3,30.58,North,360,11.2,13.0,86,0.00,CLR,,0.00,WeatherDisplay:10.37,2013-05-03 09:21:00,
2013-05-03 04:22:00,32.0,28.3,30.58,NNE,22,12.7,17.3,86,0.00,CLR,,0.00,WeatherDisplay:10.37,2013-05-03 09:22:00,
2013-05-03 04:24:00,32.0,28.3,30.58,North,360,10.6,15.0,86,0.00,CLR,,0.00,WeatherDisplay:10.37,2013-05-03 09:24:00,
2013-05-03 04:25:00,32.0,28.3,30.58,NNW,337,11.5,15.0,86,0.00,CLR,,0.00,WeatherDisplay:10.37,2013-05-03 09:25:00,
2013-05-03 04:26:00,32.0,28.0,30.58,NNE,22,10.3,15.0,85,0.00,CLR,,0.00,WeatherDisplay:10.37,2013-05-03 09:26:00,
2013-05-03 04:27:00,32.0,28.3,30.58,NNW,337,10.8,12.7,86,0.00,CLR,,0.00,WeatherDisplay:10.37,2013-05-03 09:27:00,
2013-05-03 04:29:00,32.0,28.6,30.58,NNW,337,10.4,13.8,87,0.00,CLR,,0.00,WeatherDisplay:10.37,2013-05-03 09:29:00,
2013-05-03 04:30:00,32.0,28.6,30.58,NNW,337,9.9,11.5,87,0.00,CLR,,0.00,WeatherDisplay:10.37,2013-05-03 09:30:00,
2013-05-03 04:31:00,32.0,28.6,30.58,NNW,337,9.5,16.0,87,0.00,CLR,,0.00,WeatherDisplay:10.37,2013-05-03 09:31:00,
2013-05-03 04:33:00,32.0,28.6,30.58,NNW,337,11.5,13.8,87,0.00,CLR,,0.00,WeatherDisplay:10.37,2013-05-03 09:33:00,
2013-05-03 04:34:00,32.0,28.6,30.58,NNW,337,9.5,13.8,87,0.00,CLR,,0.00,WeatherDisplay:10.37,2013-05-03 09:34:00,
2013-05-03 04:35:00,32.0,28.6,30.58,NNW,337,12.4,15.0,87,0.00,CLR,,0.00,WeatherDisplay:10.37,2013-05-03 09:35:00,
2013-05-03 04:37:00,32.0,28.6,30.58,NNE,22,9.7,14.0,87,0.00,CLR,,0.00,WeatherDisplay:10.37,2013-05-03 09:37:00,
2013-05-03 04:38:00,31.0,27.6,30.58,NNW,337,10.0,13.8,87,0.00,CLR,,0.00,WeatherDisplay:10.37,2013-05-03 09:38:00,
2013-05-03 04:39:00,31.0,27.6,30.58,NNW,337,10.4,12.0,87,0.00,CLR,,0.00,WeatherDisplay:10.37,2013-05-03 09:39:00,
2013-05-03 04:40:00,31.0,27.6,30.58,NNE,22,12.3,13.8,87,0.00,CLR,,0.00,WeatherDisplay:10.37,2013-05-03 09:40:00,
2013-05-03 04:41:00,31.0,27.6,30.58,NNW,337,12.7,16.1,87,0.00,CLR,,0.00,WeatherDisplay:10.37,2013-05-03 09:41:00,
2013-05-03 04:42:00,31.0,27.6,30.58,North,360,11.3,15.0,87,0.00,CLR,,0.00,WeatherDisplay:10.37,2013-05-03 09:42:00,
2013-05-03 04:43:00,31.0,27.6,30.58,NNW,337,9.2,13.8,87,0.00,CLR,,0.00,WeatherDisplay:10.37,2013-05-03 09:43:00,
2013-05-03 04:44:00,31.0,27.6,30.58,NNW,337,9.8,12.7,87,0.00,CLR,,0.00,WeatherDisplay:10.37,2013-05-03 09:44:00,
2013-05-03 04:45:00,31.0,27.6,30.58,NNW,337,11.0,12.7,87,0.00,CLR,,0.00,WeatherDisplay:10.37,2013-05-03 09:45:00,
2013-05-03 04:46:00,32.0,28.6,30.58,North,360,10.1,15.0,87,0.00,CLR,,0.00,WeatherDisplay:10.37,2013-05-03 09:46:00,
2013-05-03 04:47:00,31.0,27.6,30.58,NNW,337,6.2,15.0,87,0.00,CLR,,0.00,WeatherDisplay:10.37,2013-05-03 09:47:00,
2013-05-03 04:48:00,31.0,27.6,30.58,NNW,337,10.9,18.4,87,0.00,CLR,,0.00,WeatherDisplay:10.37,2013-05-03 09:48:00,
2013-05-03 04:50:00,31.0,27.6,30.58,North,360,9.9,11.5,87,0.00,CLR,,0.00,WeatherDisplay:10.37,2013-05-03 09:50:00,
2013-05-03 04:51:00,31.0,27.9,30.58,NNE,22,9.5,11.5,88,0.00,CLR,,0.00,WeatherDisplay:10.37,2013-05-03 09:51:00,
2013-05-03 04:52:00,31.0,27.9,30.58,NNW,337,10.5,13.0,88,0.00,CLR,,0.00,WeatherDisplay:10.37,2013-05-03 09:52:00,
2013-05-03 04:53:00,31.0,27.9,30.58,NNW,337,9.7,16.1,88,0.00,CLR,,0.00,WeatherDisplay:10.37,2013-05-03 09:53:00,
2013-05-03 04:55:00,31.0,27.9,30.58,NNW,337,9.8,13.0,88,0.00,CLR,,0.00,WeatherDisplay:10.37,2013-05-03 09:55:00,
2013-05-03 04:56:00,31.0,27.9,30.58,NNW,337,10.1,13.8,88,0.00,CLR,,0.00,WeatherDisplay:10.37,2013-05-03 09:56:00,
2013-05-03 04:57:00,31.0,27.9,30.58,NNW,337,11.1,12.7,88,0.00,CLR,,0.00,WeatherDisplay:10.37,2013-05-03 09:57:00,
2013-05-03 04:59:00,31.0,27.9,30.58,NNW,337,10.7,12.7,88,0.00,CLR,,0.00,WeatherDisplay:10.37,2013-05-03 09:59:00,
2013-05-03 05:00:00,31.0,27.9,30.58,North,360,10.2,12.7,88,0.00,CLR,,0.00,WeatherDisplay:10.37,2013-05-03 10:00:00,
2013-05-03 05:01:00,31.0,27.9,30.58,NNW,337,9.7,11.5,88,0.00,CLR,,0.00,WeatherDisplay:10.37,2013-05-03 10:01:00,
2013-05-03 05:02:00,31.0,27.9,30.58,NNW,337,8.7,11.5,88,0.00,CLR,,0.00,WeatherDisplay:10.37,2013-05-03 10:02:00,
2013-05-03 05:04:00,31.0,27.9,30.58,NNE,22,9.7,15.0,88,0.00,CLR,,0.00,WeatherDisplay:10.37,2013-05-03 10:04:00,
2013-05-03 05:05:00,31.0,27.9,30.58,NNW,337,7.7,11.5,88,0.00,CLR,,0.00,WeatherDisplay:10.37,2013-05-03 10:05:00,
2013-05-03 05:07:00,31.0,27.9,30.58,NNW,337,10.2,15.0,88,0.00,CLR,,0.00,WeatherDisplay:10.37,2013-05-03 10:07:00,
2013-05-03 05:09:00,31.0,27.9,30.58,North,360,10.3,16.1,88,0.00,CLR,,0.00,WeatherDisplay:10.37,2013-05-03 10:09:00,
2013-05-03 05:10:00,31.0,27.9,30.58,NNW,337,10.6,12.7,88,0.00,CLR,,0.00,WeatherDisplay:10.37,2013-05-03 10:10:00,
2013-05-03 05:12:00,31.0,28.1,30.58,NNW,337,10.6,15.0,89,0.00,CLR,,0.00,WeatherDisplay:10.37,2013-05-03 10:12:00,
2013-05-03 05:13:00,31.0,28.1,30.58,NNW,337,10.9,13.8,89,0.00,CLR,,0.00,WeatherDisplay:10.37,2013-05-03 10:13:00,
2013-05-03 05:15:00,31.0,28.1,30.58,NNE,22,9.1,12.0,89,0.00,CLR,,0.00,WeatherDisplay:10.37,2013-05-03 10:15:00,
2013-05-03 05:17:00,31.0,28.1,30.59,NNW,337,13.9,18.0,89,0.00,CLR,,0.00,WeatherDisplay:10.37,2013-05-03 10:17:00,
2013-05-03 05:18:00,31.0,28.1,30.59,NNW,337,11.6,18.4,89,0.00,CLR,,0.00,WeatherDisplay:10.37,2013-05-03 10:18:00,
2013-05-03 05:20:00,31.0,28.1,30.59,NNW,337,11.7,16.1,89,0.00,CLR,,0.00,WeatherDisplay:10.37,2013-05-03 10:20:00,
2013-05-03 05:22:00,31.0,28.1,30.59,NNW,337,9.6,11.5,89,0.00,CLR,,0.00,WeatherDisplay:10.37,2013-05-03 10:22:00,
2013-05-03 05:23:00,31.0,28.1,30.59,NW,315,10.4,13.8,89,0.00,CLR,,0.00,WeatherDisplay:10.37,2013-05-03 10:23:00,
2013-05-03 05:25:00,31.0,28.1,30.59,NNW,337,9.1,13.0,89,0.00,CLR,,0.00,WeatherDisplay:10.37,2013-05-03 10:25:00,
2013-05-03 05:27:00,31.0,28.4,30.59,NNW,337,11.3,14.0,90,0.00,CLR,,0.00,WeatherDisplay:10.37,2013-05-03 10:27:00,
2013-05-03 05:28:00,31.0,28.4,30.59,NW,315,10.8,13.8,90,0.00,CLR,,0.00,WeatherDisplay:10.37,2013-05-03 10:28:00,
2013-05-03 05:30:00,31.0,28.4,30.59,NNW,337,9.3,12.0,90,0.00,CLR,,0.00,WeatherDisplay:10.37,2013-05-03 10:30:00,
2013-05-03 05:32:00,31.0,28.4,30.59,NNW,337,10.2,14.0,90,0.00,CLR,,0.00,WeatherDisplay:10.37,2013-05-03 10:32:00,
2013-05-03 05:33:00,31.0,28.4,30.59,NNE,22,11.5,15.0,90,0.00,CLR,,0.00,WeatherDisplay:10.37,2013-05-03 10:33:00,
2013-05-03 05:34:00,31.0,28.4,30.59,NNW,337,11.1,15.0,90,0.00,CLR,,0.00,WeatherDisplay:10.37,2013-05-03 10:34:00,
2013-05-03 05:35:00,31.0,28.4,30.59,NNW,337,11.0,14.0,90,0.00,CLR,,0.00,WeatherDisplay:10.37,2013-05-03 10:35:00,
2013-05-03 05:36:00,31.0,28.4,30.59,WSW,247,8.1,18.4,90,0.00,CLR,,0.00,WeatherDisplay:10.37,2013-05-03 10:36:00,
2013-05-03 05:37:00,31.0,28.4,30.59,North,360,11.7,13.0,90,0.00,CLR,,0.00,WeatherDisplay:10.37,2013-05-03 10:37:00,
2013-05-03 05:38:00,31.0,28.4,30.59,NNW,337,11.8,15.0,90,0.00,CLR,,0.00,WeatherDisplay:10.37,2013-05-03 10:38:00,
2013-05-03 05:39:00,31.0,28.4,30.59,NNW,337,12.6,17.3,90,0.00,CLR,,0.00,WeatherDisplay:10.37,2013-05-03 10:39:00,
2013-05-03 05:40:00,31.0,28.4,30.59,NNW,337,14.2,17.3,90,0.00,CLR,,0.00,WeatherDisplay:10.37,2013-05-03 10:40:00,
2013-05-03 05:41:00,31.0,28.4,30.59,NNW,337,13.5,18.4,90,0.00,CLR,,0.00,WeatherDisplay:10.37,2013-05-03 10:41:00,
2013-05-03 05:42:00,31.0,28.4,30.59,NNW,337,9.7,15.0,90,0.00,CLR,,0.00,WeatherDisplay:10.37,2013-05-03 10:42:00,
2013-05-03 05:43:00,31.0,28.4,30.59,NNW,337,9.1,12.0,90,0.00,CLR,,0.00,WeatherDisplay:10.37,2013-05-03 10:43:00,
2013-05-03 05:44:00,31.0,28.4,30.59,NNW,337,9.8,13.8,90,0.00,CLR,,0.00,WeatherDisplay:10.37,2013-05-03 10:44:00,
2013-05-03 05:46:00,31.0,28.4,30.58,NNW,337,10.4,13.8,90,0.00,CLR,,0.00,WeatherDisplay:10.37,2013-05-03 10:46:00,
2013-05-03 05:48:00,31.0,28.4,30.58,NNW,337,13.7,19.6,90,0.00,CLR,,0.00,WeatherDisplay:10.37,2013-05-03 10:48:00,
2013-05-03 05:49:00,31.0,28.4,30.58,NNW,337,8.9,16.1,90,0.00,CLR,,0.00,WeatherDisplay:10.37,2013-05-03 10:49:00,
2013-05-03 05:51:00,31.0,28.4,30.58,NNW,337,11.9,16.0,90,0.00,CLR,,0.00,WeatherDisplay:10.37,2013-05-03 10:51:00,
2013-05-03 05:53:00,31.0,28.7,30.58,NNW,337,10.2,13.0,91,0.00,CLR,,0.00,WeatherDisplay:10.37,2013-05-03 10:53:00,
2013-05-03 05:54:00,31.0,28.7,30.58,NNW,337,12.2,15.0,91,0.00,CLR,,0.00,WeatherDisplay:10.37,2013-05-03 10:54:00,
2013-05-03 05:56:00,31.0,28.4,30.58,NNW,337,11.0,16.1,90,0.00,CLR,,0.00,WeatherDisplay:10.37,2013-05-03 10:56:00,
2013-05-03 05:58:00,30.0,27.7,30.58,NNW,337,9.9,12.0,91,0.00,CLR,,0.00,WeatherDisplay:10.37,2013-05-03 10:58:00,
2013-05-03 05:59:00,30.0,27.7,30.58,NW,315,11.2,15.0,91,0.00,CLR,,0.00,WeatherDisplay:10.37,2013-05-03 10:59:00,
2013-05-03 06:01:00,30.0,27.7,30.58,North,360,8.6,12.7,91,0.00,CLR,,0.00,WeatherDisplay:10.37,2013-05-03 11:01:00,
2013-05-03 06:03:00,30.0,27.7,30.58,NNW,337,9.5,11.5,91,0.00,CLR,,0.00,WeatherDisplay:10.37,2013-05-03 11:03:00,
2013-05-03 06:04:00,30.0,27.7,30.58,NNW,337,9.3,11.5,91,0.00,CLR,,0.00,WeatherDisplay:10.37,2013-05-03 11:04:00,
2013-05-03 06:05:00,30.0,28.0,30.58,North,360,9.9,11.5,92,0.00,CLR,,0.00,WeatherDisplay:10.37,2013-05-03 11:05:00,
2013-05-03 06:06:00,30.0,27.7,30.58,NNW,337,9.3,11.5,91,0.00,CLR,,0.00,WeatherDisplay:10.37,2013-05-03 11:06:00,
2013-05-03 06:07:00,30.0,27.7,30.58,NNW,337,8.9,10.4,91,0.00,CLR,,0.00,WeatherDisplay:10.37,2013-05-03 11:07:00,
2013-05-03 06:08:00,30.0,28.0,30.58,NNW,337,9.8,12.0,92,0.00,CLR,,0.00,WeatherDisplay:10.37,2013-05-03 11:08:00,
2013-05-03 06:09:00,30.0,28.0,30.58,NNW,337,10.8,20.0,92,0.00,CLR,,0.00,WeatherDisplay:10.37,2013-05-03 11:09:00,
2013-05-03 06:10:00,30.0,28.0,30.58,NNW,337,11.6,19.6,92,0.00,CLR,,0.00,WeatherDisplay:10.37,2013-05-03 11:10:00,
2013-05-03 06:11:00,30.0,28.0,30.58,NNW,337,9.2,15.0,92,0.00,CLR,,0.00,WeatherDisplay:10.37,2013-05-03 11:11:00,
2013-05-03 06:12:00,30.0,28.0,30.58,NNW,337,10.3,12.7,92,0.00,CLR,,0.00,WeatherDisplay:10.37,2013-05-03 11:12:00,
2013-05-03 06:14:00,30.0,28.0,30.58,NNW,337,11.8,16.1,92,0.00,CLR,,0.00,WeatherDisplay:10.37,2013-05-03 11:14:00,
2013-05-03 06:15:00,30.0,28.0,30.58,NNW,337,10.9,15.0,92,0.00,CLR,,0.00,WeatherDisplay:10.37,2013-05-03 11:15:00,
2013-05-03 06:16:00,31.0,28.7,30.58,NNW,337,12.6,17.3,91,0.00,CLR,,0.00,WeatherDisplay:10.37,2013-05-03 11:16:00,
2013-05-03 06:17:00,30.0,27.7,30.58,NNW,337,9.4,16.1,91,0.00,CLR,,0.00,WeatherDisplay:10.37,2013-05-03 11:17:00,
2013-05-03 06:19:00,30.0,27.7,30.58,NNW,337,13.3,17.3,91,0.00,CLR,,0.00,WeatherDisplay:10.37,2013-05-03 11:19:00,
2013-05-03 06:20:00,30.0,27.7,30.58,NNW,337,13.5,18.4,91,0.00,CLR,,0.00,WeatherDisplay:10.37,2013-05-03 11:20:00,
2013-05-03 06:21:00,30.0,27.7,30.58,North,360,12.0,19.6,91,0.00,CLR,,0.00,WeatherDisplay:10.37,2013-05-03 11:21:00,
2013-05-03 06:22:00,30.0,27.7,30.58,NNW,337,11.0,15.0,91,0.00,CLR,,0.00,WeatherDisplay:10.37,2013-05-03 11:22:00,
2013-05-03 06:24:00,30.0,27.7,30.58,NNW,337,11.8,16.1,91,0.00,CLR,,0.00,WeatherDisplay:10.37,2013-05-03 11:24:00,
2013-05-03 06:25:00,30.0,27.7,30.58,NNW,337,10.3,15.0,91,0.00,CLR,,0.00,WeatherDisplay:10.37,2013-05-03 11:25:00,
2013-05-03 06:26:00,31.0,28.7,30.56,NNW,337,10.0,15.0,91,0.00,CLR,,0.00,WeatherDisplay:10.37,2013-05-03 11:26:00,
2013-05-03 06:28:00,30.0,27.7,30.56,NNW,337,9.5,12.7,91,0.00,CLR,,0.00,WeatherDisplay:10.37,2013-05-03 11:28:00,
2013-05-03 06:29:00,30.0,28.0,30.56,NNW,337,11.6,15.0,92,0.00,CLR,,0.00,WeatherDisplay:10.37,2013-05-03 11:29:00,
2013-05-03 06:31:00,30.0,28.0,30.56,NNW,337,10.9,13.0,92,0.00,CLR,,0.00,WeatherDisplay:10.37,2013-05-03 11:31:00,
2013-05-03 06:32:00,30.0,28.0,30.56,NNW,337,11.5,18.4,92,0.00,CLR,,0.00,WeatherDisplay:10.37,2013-05-03 11:32:00,
2013-05-03 06:33:00,30.0,28.0,30.56,NW,315,8.8,11.5,92,0.00,CLR,,0.00,WeatherDisplay:10.37,2013-05-03 11:33:00,
2013-05-03 06:34:00,30.0,28.0,30.56,NNW,337,10.8,13.8,92,0.00,CLR,,0.00,WeatherDisplay:10.37,2013-05-03 11:34:00,
2013-05-03 06:35:00,30.0,28.0,30.56,NNW,337,10.6,13.8,92,0.00,CLR,,0.00,WeatherDisplay:10.37,2013-05-03 11:35:00,
2013-05-03 06:37:00,30.0,27.7,30.57,NW,315,9.4,15.0,91,0.00,CLR,,0.00,WeatherDisplay:10.37,2013-05-03 11:37:00,
2013-05-03 06:38:00,30.0,28.0,30.57,NNW,337,12.6,15.0,92,0.00,CLR,,0.00,WeatherDisplay:10.37,2013-05-03 11:38:00,
2013-05-03 06:39:00,30.0,27.7,30.57,NNW,337,13.0,18.4,91,0.00,CLR,,0.00,WeatherDisplay:10.37,2013-05-03 11:39:00,
2013-05-03 06:40:00,30.0,27.7,30.57,NNW,337,12.1,16.1,91,0.00,CLR,,0.00,WeatherDisplay:10.37,2013-05-03 11:40:00,
2013-05-03 06:42:00,30.0,27.7,30.57,NNW,337,9.1,12.7,91,0.00,CLR,,0.00,WeatherDisplay:10.37,2013-05-03 11:42:00,
2013-05-03 06:43:00,30.0,27.7,30.57,NW,315,10.3,14.0,91,0.00,CLR,,0.00,WeatherDisplay:10.37,2013-05-03 11:43:00,
2013-05-03 06:44:00,30.0,27.7,30.57,NNE,22,11.9,17.3,91,0.00,CLR,,0.00,WeatherDisplay:10.37,2013-05-03 11:44:00,
2013-05-03 06:45:00,30.0,27.7,30.57,NNW,337,11.7,17.3,91,0.00,CLR,,0.00,WeatherDisplay:10.37,2013-05-03 11:45:00,
2013-05-03 06:47:00,30.0,27.4,30.56,NW,315,12.0,18.4,90,0.00,CLR,,0.00,WeatherDisplay:10.37,2013-05-03 11:47:00,
2013-05-03 06:49:00,30.0,27.4,30.56,NNW,337,13.2,17.3,90,0.00,CLR,,0.00,WeatherDisplay:10.37,2013-05-03 11:49:00,
2013-05-03 06:50:00,30.0,27.4,30.56,NNW,337,12.5,17.3,90,0.00,CLR,,0.00,WeatherDisplay:10.37,2013-05-03 11:50:00,
2013-05-03 06:52:00,30.0,27.4,30.56,NW,315,10.1,13.0,90,0.00,CLR,,0.00,WeatherDisplay:10.37,2013-05-03 11:52:00,
2013-05-03 06:53:00,30.0,27.4,30.56,NNW,337,9.9,12.7,90,0.00,CLR,,0.00,WeatherDisplay:10.37,2013-05-03 11:53:00,
2013-05-03 06:54:00,30.0,27.4,30.56,North,360,11.6,15.0,90,0.00,CLR,,0.00,WeatherDisplay:10.37,2013-05-03 11:54:00,
2013-05-03 06:55:00,31.0,28.4,30.56,NNW,337,14.7,17.3,90,0.00,CLR,,0.00,WeatherDisplay:10.37,2013-05-03 11:55:00,
2013-05-03 06:58:00,31.0,28.4,30.56,NNW,337,14.0,18.4,90,0.00,CLR,,0.00,WeatherDisplay:10.37,2013-05-03 11:58:00,
2013-05-03 06:59:00,31.0,28.1,30.56,NNW,337,14.0,19.6,89,0.00,CLR,,0.00,WeatherDisplay:10.37,2013-05-03 11:59:00,
2013-05-03 07:00:00,31.0,28.1,30.56,NNW,337,10.6,17.3,89,0.00,CLR,,0.00,WeatherDisplay:10.37,2013-05-03 12:00:00,
2013-05-03 07:01:00,31.0,28.1,30.56,NNW,337,12.8,18.4,89,0.00,CLR,,0.00,WeatherDisplay:10.37,2013-05-03 12:01:00,
2013-05-03 07:03:00,31.0,28.1,30.56,NNW,337,15.8,19.6,89,0.00,CLR,,0.00,WeatherDisplay:10.37,2013-05-03 12:03:00,
2013-05-03 07:04:00,31.0,28.1,30.56,NNW,337,11.9,15.0,89,0.00,CLR,,0.00,WeatherDisplay:10.37,2013-05-03 12:04:00,
2013-05-03 07:06:00,31.0,28.1,30.56,NNW,337,10.5,15.0,89,0.00,CLR,,0.00,WeatherDisplay:10.37,2013-05-03 12:06:00,
2013-05-03 07:08:00,31.0,27.9,30.56,NNW,337,13.1,17.3,88,0.00,CLR,,0.00,WeatherDisplay:10.37,2013-05-03 12:08:00,
2013-05-03 07:09:00,31.0,27.9,30.56,NNW,337,12.8,23.0,88,0.00,CLR,,0.00,WeatherDisplay:10.37,2013-05-03 12:09:00,
2013-05-03 07:11:00,31.0,27.9,30.56,NNW,337,15.0,19.6,88,0.00,CLR,,0.00,WeatherDisplay:10.37,2013-05-03 12:11:00,
2013-05-03 07:13:00,31.0,27.9,30.56,NW,315,14.8,19.6,88,0.00,CLR,,0.00,WeatherDisplay:10.37,2013-05-03 12:13:00,
2013-05-03 07:15:00,31.0,27.9,30.56,NNW,337,12.4,18.0,88,0.00,CLR,,0.00,WeatherDisplay:10.37,2013-05-03 12:15:00,
2013-05-03 07:16:00,32.0,28.6,30.56,NNW,337,14.6,18.4,87,0.00,CLR,,0.00,WeatherDisplay:10.37,2013-05-03 12:16:00,
2013-05-03 07:18:00,32.0,28.6,30.56,NNW,337,13.4,17.3,87,0.00,CLR,,0.00,WeatherDisplay:10.37,2013-05-03 12:18:00,
2013-05-03 07:19:00,32.0,28.3,30.56,NNW,337,13.6,19.6,86,0.00,CLR,,0.00,WeatherDisplay:10.37,2013-05-03 12:19:00,
2013-05-03 07:20:00,32.0,28.6,30.56,NNW,337,11.8,19.6,87,0.00,CLR,,0.00,WeatherDisplay:10.37,2013-05-03 12:20:00,
2013-05-03 07:21:00,32.0,28.3,30.56,NNW,337,12.5,18.0,86,0.00,CLR,,0.00,WeatherDisplay:10.37,2013-05-03 12:21:00,
2013-05-03 07:23:00,32.0,28.3,30.56,NNW,337,12.8,16.1,86,0.00,CLR,,0.00,WeatherDisplay:10.37,2013-05-03 12:23:00,
2013-05-03 07:24:00,32.0,28.3,30.56,NNW,337,16.5,19.6,86,0.00,CLR,,0.00,WeatherDisplay:10.37,2013-05-03 12:24:00,
2013-05-03 07:26:00,32.0,28.3,30.56,NNW,337,14.0,16.1,86,0.00,CLR,,0.00,WeatherDisplay:10.37,2013-05-03 12:26:00,
2013-05-03 07:27:00,32.0,28.3,30.55,NNW,337,14.0,19.6,86,0.00,CLR,,0.00,WeatherDisplay:10.37,2013-05-03 12:27:00,
2013-05-03 07:28:00,32.0,28.3,30.55,NNW,337,10.8,15.0,86,0.00,CLR,,0.00,WeatherDisplay:10.37,2013-05-03 12:28:00,
2013-05-03 07:30:00,32.0,28.3,30.55,NNW,337,12.6,16.1,86,0.00,CLR,,0.00,WeatherDisplay:10.37,2013-05-03 12:30:00,
2013-05-03 07:31:00,32.0,28.0,30.55,WNW,292,15.2,19.6,85,0.00,CLR,,0.00,WeatherDisplay:10.37,2013-05-03 12:31:00,
2013-05-03 07:32:00,32.0,28.0,30.55,NNE,22,13.4,19.6,85,0.00,CLR,,0.00,WeatherDisplay:10.37,2013-05-03 12:32:00,
2013-05-03 07:33:00,32.0,28.0,30.55,NNW,337,13.6,16.1,85,0.00,CLR,,0.00,WeatherDisplay:10.37,2013-05-03 12:33:00,
2013-05-03 07:35:00,32.0,27.7,30.55,NNW,337,11.4,13.8,84,0.00,CLR,,0.00,WeatherDisplay:10.37,2013-05-03 12:35:00,
2013-05-03 07:36:00,33.0,28.1,30.55,NW,315,9.1,13.8,82,0.00,CLR,,0.00,WeatherDisplay:10.37,2013-05-03 12:36:00,
2013-05-03 07:37:00,33.0,28.1,30.55,North,360,8.7,17.0,82,0.00,CLR,,0.00,WeatherDisplay:10.37,2013-05-03 12:37:00,
2013-05-03 07:38:00,33.0,28.1,30.55,NNW,337,11.1,19.6,82,0.00,CLR,,0.00,WeatherDisplay:10.37,2013-05-03 12:38:00,
2013-05-03 07:40:00,33.0,28.1,30.55,NNW,337,14.5,19.0,82,0.00,CLR,,0.00,WeatherDisplay:10.37,2013-05-03 12:40:00,
2013-05-03 07:41:00,33.0,27.8,30.55,North,360,15.2,20.7,81,0.00,CLR,,0.00,WeatherDisplay:10.37,2013-05-03 12:41:00,
2013-05-03 07:42:00,33.0,27.8,30.55,NNE,22,14.2,18.4,81,0.00,CLR,,0.00,WeatherDisplay:10.37,2013-05-03 12:42:00,
2013-05-03 07:43:00,33.0,27.8,30.55,NNW,337,12.4,15.0,81,0.00,CLR,,0.00,WeatherDisplay:10.37,2013-05-03 12:43:00,
2013-05-03 07:46:00,33.0,27.8,30.55,WSW,247,10.8,13.8,81,0.00,CLR,,0.00,WeatherDisplay:10.37,2013-05-03 12:46:00,
2013-05-03 07:47:00,33.0,28.1,30.55,NNW,337,11.2,16.1,82,0.00,CLR,,0.00,WeatherDisplay:10.37,2013-05-03 12:47:00,
2013-05-03 07:48:00,33.0,27.8,30.55,NNW,337,10.4,17.0,81,0.00,CLR,,0.00,WeatherDisplay:10.37,2013-05-03 12:48:00,
2013-05-03 07:49:00,33.0,27.8,30.55,NNW,337,13.8,18.4,81,0.00,CLR,,0.00,WeatherDisplay:10.37,2013-05-03 12:49:00,
2013-05-03 07:51:00,32.0,27.4,30.55,NNW,337,13.7,19.6,83,0.00,CLR,,0.00,WeatherDisplay:10.37,2013-05-03 12:51:00,
2013-05-03 07:52:00,32.0,27.4,30.55,North,360,13.6,19.6,83,0.00,CLR,,0.00,WeatherDisplay:10.37,2013-05-03 12:52:00,
2013-05-03 07:53:00,32.0,27.4,30.55,North,360,11.8,18.4,83,0.00,CLR,,0.00,WeatherDisplay:10.37,2013-05-03 12:53:00,
2013-05-03 07:54:00,32.0,27.1,30.55,NNW,337,13.9,19.6,82,0.00,CLR,,0.00,WeatherDisplay:10.37,2013-05-03 12:54:00,
2013-05-03 07:57:00,32.0,27.4,30.56,North,360,11.0,15.0,83,0.00,CLR,,0.00,WeatherDisplay:10.37,2013-05-03 12:57:00,
2013-05-03 07:59:00,32.0,27.4,30.56,NNW,337,12.8,17.3,83,0.00,CLR,,0.00,WeatherDisplay:10.37,2013-05-03 12:59:00,
2013-05-03 08:02:00,32.0,27.4,30.56,WSW,247,11.1,16.1,83,0.00,CLR,,0.00,WeatherDisplay:10.37,2013-05-03 13:02:00,
2013-05-03 08:03:00,32.0,27.4,30.56,North,360,7.4,16.1,83,0.00,CLR,,0.00,WeatherDisplay:10.37,2013-05-03 13:03:00,
2013-05-03 08:04:00,32.0,27.4,30.56,NNW,337,12.5,18.4,83,0.00,CLR,,0.00,WeatherDisplay:10.37,2013-05-03 13:04:00,
2013-05-03 08:07:00,32.0,27.4,30.55,NNW,337,11.9,18.4,83,0.00,CLR,,0.00,WeatherDisplay:10.37,2013-05-03 13:07:00,
2013-05-03 08:08:00,32.0,27.4,30.55,North,360,9.7,12.7,83,0.00,CLR,,0.00,WeatherDisplay:10.37,2013-05-03 13:08:00,
2013-05-03 08:09:00,32.0,27.4,30.55,North,360,13.1,17.3,83,0.00,CLR,,0.00,WeatherDisplay:10.37,2013-05-03 13:09:00,
2013-05-03 08:12:00,32.0,27.4,30.55,NNW,337,12.0,19.6,83,0.00,CLR,,0.00,WeatherDisplay:10.37,2013-05-03 13:12:00,
2013-05-03 08:13:00,32.0,27.4,30.55,NNW,337,14.9,18.4,83,0.00,CLR,,0.00,WeatherDisplay:10.37,2013-05-03 13:13:00,
2013-05-03 08:14:00,33.0,28.1,30.55,NNW,337,12.9,18.4,82,0.00,CLR,,0.00,WeatherDisplay:10.37,2013-05-03 13:14:00,
2013-05-03 08:17:00,33.0,27.8,30.55,WSW,247,11.1,15.0,81,0.00,CLR,,0.00,WeatherDisplay:10.37,2013-05-03 13:17:00,
2013-05-03 08:18:00,33.0,27.8,30.55,NNW,337,6.1,15.0,81,0.00,CLR,,0.00,WeatherDisplay:10.37,2013-05-03 13:18:00,
2013-05-03 08:19:00,33.0,27.5,30.55,NNW,337,14.0,17.3,80,0.00,CLR,,0.00,WeatherDisplay:10.37,2013-05-03 13:19:00,
2013-05-03 08:22:00,33.0,27.8,30.55,NW,315,12.8,18.0,81,0.00,CLR,,0.00,WeatherDisplay:10.37,2013-05-03 13:22:00,
2013-05-03 08:23:00,33.0,27.8,30.55,NNW,337,14.3,19.6,81,0.00,CLR,,0.00,WeatherDisplay:10.37,2013-05-03 13:23:00,
2013-05-03 08:24:00,33.0,27.8,30.55,NNW,337,12.0,17.3,81,0.00,CLR,,0.00,WeatherDisplay:10.37,2013-05-03 13:24:00,
2013-05-03 08:27:00,33.0,27.8,30.54,NNW,337,11.0,17.3,81,0.00,CLR,,0.00,WeatherDisplay:10.37,2013-05-03 13:27:00,
2013-05-03 08:28:00,33.0,27.8,30.54,NNE,22,11.1,15.0,81,0.00,CLR,,0.00,WeatherDisplay:10.37,2013-05-03 13:28:00,
2013-05-03 08:29:00,33.0,27.8,30.54,North,360,14.2,19.0,81,0.00,CLR,,0.00,WeatherDisplay:10.37,2013-05-03 13:29:00,
2013-05-03 08:33:00,32.0,27.1,30.54,North,360,18.0,23.0,82,0.00,CLR,,0.00,WeatherDisplay:10.37,2013-05-03 13:33:00,
2013-05-03 08:34:00,32.0,27.1,30.54,NNW,337,16.1,20.7,82,0.00,CLR,,0.00,WeatherDisplay:10.37,2013-05-03 13:34:00,
2013-05-03 08:35:00,32.0,27.1,30.54,NNW,337,13.8,19.6,82,0.00,CLR,,0.00,WeatherDisplay:10.37,2013-05-03 13:35:00,
2013-05-03 08:38:00,32.0,27.1,30.55,NNW,337,14.6,17.3,82,0.00,CLR,,0.00,WeatherDisplay:10.37,2013-05-03 13:38:00,
2013-05-03 08:39:00,32.0,27.4,30.55,NW,315,12.0,17.3,83,0.00,CLR,,0.00,WeatherDisplay:10.37,2013-05-03 13:39:00,
2013-05-03 08:40:00,32.0,27.4,30.55,NNW,337,7.7,10.4,83,0.00,CLR,,0.00,WeatherDisplay:10.37,2013-05-03 13:40:00,
2013-05-03 08:43:00,32.0,27.4,30.55,NNW,337,7.7,12.0,83,0.00,CLR,,0.00,WeatherDisplay:10.37,2013-05-03 13:43:00,
2013-05-03 08:44:00,32.0,27.4,30.55,North,360,10.3,16.0,83,0.00,CLR,,0.00,WeatherDisplay:10.37,2013-05-03 13:44:00,
2013-05-03 08:45:00,32.0,27.1,30.55,NNW,337,12.5,19.6,82,0.00,CLR,,0.00,WeatherDisplay:10.37,2013-05-03 13:45:00,
2013-05-03 08:48:00,33.0,28.1,30.55,NNW,337,14.7,18.4,82,0.00,CLR,,0.00,WeatherDisplay:10.37,2013-05-03 13:48:00,
2013-05-03 08:49:00,33.0,28.1,30.55,North,360,13.7,18.4,82,0.00,CLR,,0.00,WeatherDisplay:10.37,2013-05-03 13:49:00,
2013-05-03 08:50:00,33.0,28.1,30.55,NNW,337,11.4,16.1,82,0.00,CLR,,0.00,WeatherDisplay:10.37,2013-05-03 13:50:00,
2013-05-03 08:51:00,33.0,28.1,30.55,NNW,337,10.8,13.8,82,0.00,CLR,,0.00,WeatherDisplay:10.37,2013-05-03 13:51:00,
2013-05-03 08:53:00,33.0,27.8,30.55,North,360,11.3,13.8,81,0.00,CLR,,0.00,WeatherDisplay:10.37,2013-05-03 13:53:00,
2013-05-03 08:54:00,33.0,27.8,30.55,NNW,337,11.7,13.8,81,0.00,CLR,,0.00,WeatherDisplay:10.37,2013-05-03 13:54:00,
2013-05-03 08:55:00,33.0,27.8,30.55,NNE,22,11.8,17.3,81,0.00,CLR,,0.00,WeatherDisplay:10.37,2013-05-03 13:55:00,
2013-05-03 08:56:00,33.0,27.8,30.55,North,360,10.5,13.8,81,0.00,CLR,,0.00,WeatherDisplay:10.37,2013-05-03 13:56:00,
2013-05-03 08:59:00,33.0,27.8,30.55,NNE,22,7.2,17.3,81,0.00,CLR,,0.00,WeatherDisplay:10.37,2013-05-03 13:59:00,
2013-05-03 09:00:00,33.0,27.8,30.55,NNE,22,12.3,18.4,81,0.00,CLR,,0.00,WeatherDisplay:10.37,2013-05-03 14:00:00,
2013-05-03 09:01:00,33.0,27.8,30.55,WNW,292,9.1,13.8,81,0.00,CLR,,0.00,WeatherDisplay:10.37,2013-05-03 14:01:00,
2013-05-03 09:02:00,33.0,27.8,30.55,NNW,337,10.5,13.0,81,0.00,CLR,,0.00,WeatherDisplay:10.37,2013-05-03 14:02:00,
2013-05-03 09:04:00,33.0,28.1,30.55,NNW,337,13.4,18.4,82,0.00,CLR,,0.00,WeatherDisplay:10.37,2013-05-03 14:04:00,
2013-05-03 09:05:00,34.0,28.8,30.55,NNW,337,10.5,13.8,81,0.00,CLR,,0.00,WeatherDisplay:10.37,2013-05-03 14:05:00,
2013-05-03 09:06:00,34.0,28.2,30.53,NNW,337,14.1,19.6,79,0.00,CLR,,0.00,WeatherDisplay:10.37,2013-05-03 14:06:00,
2013-05-03 09:07:00,34.0,28.2,30.53,NNW,337,14.3,18.4,79,0.00,CLR,,0.00,WeatherDisplay:10.37,2013-05-03 14:07:00,
2013-05-03 09:10:00,35.0,28.8,30.53,NNW,337,12.5,18.4,78,0.00,CLR,,0.00,WeatherDisplay:10.37,2013-05-03 14:10:00,
2013-05-03 09:12:00,35.0,28.5,30.53,NNW,337,11.8,15.0,77,0.00,CLR,,0.00,WeatherDisplay:10.37,2013-05-03 14:12:00,
2013-05-03 09:15:00,36.0,29.2,30.53,North,360,14.2,19.6,76,0.00,CLR,,0.00,WeatherDisplay:10.37,2013-05-03 14:15:00,
2013-05-03 09:16:00,36.0,29.2,30.53,NNW,337,15.5,23.0,76,0.00,CLR,,0.00,WeatherDisplay:10.37,2013-05-03 14:16:00,
2013-05-03 09:17:00,36.0,29.2,30.53,NNW,337,14.2,18.4,76,0.00,CLR,,0.00,WeatherDisplay:10.37,2013-05-03 14:17:00,
2013-05-03 09:20:00,35.0,28.5,30.53,NNW,337,16.0,19.6,77,0.00,CLR,,0.00,WeatherDisplay:10.37,2013-05-03 14:20:00,
2013-05-03 09:21:00,35.0,28.5,30.53,NNW,337,12.4,17.3,77,0.00,CLR,,0.00,WeatherDisplay:10.37,2013-05-03 14:21:00,
2013-05-03 09:22:00,35.0,28.5,30.53,North,360,11.1,18.0,77,0.00,CLR,,0.00,WeatherDisplay:10.37,2013-05-03 14:22:00,
2013-05-03 09:25:00,36.0,29.8,30.53,North,360,11.8,19.6,78,0.00,CLR,,0.00,WeatherDisplay:10.37,2013-05-03 14:25:00,
2013-05-03 09:26:00,36.0,29.5,30.51,NNW,337,10.7,15.0,77,0.00,CLR,,0.00,WeatherDisplay:10.37,2013-05-03 14:26:00,
2013-05-03 09:27:00,36.0,29.2,30.51,NNW,337,16.4,17.3,76,0.00,CLR,,0.00,WeatherDisplay:10.37,2013-05-03 14:27:00,
2013-05-03 09:30:00,36.0,29.2,30.51,NNW,337,16.1,21.9,76,0.00,CLR,,0.00,WeatherDisplay:10.37,2013-05-03 14:30:00,
2013-05-03 09:31:00,36.0,28.5,30.51,WNW,292,20.5,22.0,74,0.00,CLR,,0.00,WeatherDisplay:10.37,2013-05-03 14:31:00,
2013-05-03 09:32:00,36.0,29.2,30.51,NNW,337,20.5,26.5,76,0.00,CLR,,0.00,WeatherDisplay:10.37,2013-05-03 14:32:00,
2013-05-03 09:33:00,36.0,29.2,30.51,NNW,337,19.8,25.3,76,0.00,CLR,,0.00,WeatherDisplay:10.37,2013-05-03 14:33:00,
2013-05-03 09:35:00,36.0,29.2,30.51,NW,315,20.8,26.5,76,0.00,CLR,,0.00,WeatherDisplay:10.37,2013-05-03 14:35:00,
2013-05-03 09:37:00,35.0,27.9,30.49,NNW,337,20.2,26.5,75,0.00,CLR,,0.00,WeatherDisplay:10.37,2013-05-03 14:37:00,
2013-05-03 09:38:00,35.0,27.9,30.49,NNW,337,22.1,28.8,75,0.00,CLR,,0.00,WeatherDisplay:10.37,2013-05-03 14:38:00,
2013-05-03 09:40:00,36.0,29.2,30.49,NW,315,19.8,26.5,76,0.00,CLR,,0.00,WeatherDisplay:10.37,2013-05-03 14:40:00,
2013-05-03 09:41:00,36.0,29.2,30.49,WNW,292,18.8,24.2,76,0.00,CLR,,0.00,WeatherDisplay:10.37,2013-05-03 14:41:00,
2013-05-03 09:42:00,36.0,29.2,30.49,NNW,337,16.7,20.0,76,0.00,CLR,,0.00,WeatherDisplay:10.37,2013-05-03 14:42:00,
2013-05-03 09:43:00,36.0,29.2,30.49,NNW,337,18.4,24.2,76,0.00,CLR,,0.00,WeatherDisplay:10.37,2013-05-03 14:43:00,
2013-05-03 09:44:00,37.0,29.5,30.49,NNW,337,15.7,20.7,74,0.00,CLR,,0.00,WeatherDisplay:10.37,2013-05-03 14:44:00,
2013-05-03 09:46:00,37.0,29.5,30.49,NNW,337,15.9,26.5,74,0.00,CLR,,0.00,WeatherDisplay:10.37,2013-05-03 14:46:00,
2013-05-03 09:47:00,37.0,29.5,30.49,NNW,337,17.1,19.6,74,0.00,CLR,,0.00,WeatherDisplay:10.37,2013-05-03 14:47:00,
2013-05-03 09:48:00,37.0,29.5,30.49,NNW,337,15.2,20.7,74,0.00,CLR,,0.00,WeatherDisplay:10.37,2013-05-03 14:48:00,
2013-05-03 09:49:00,37.0,28.8,30.49,North,360,17.7,25.3,72,0.00,CLR,,0.00,WeatherDisplay:10.37,2013-05-03 14:49:00,
2013-05-03 09:51:00,37.0,29.5,30.49,NNW,337,14.4,23.0,74,0.00,CLR,,0.00,WeatherDisplay:10.37,2013-05-03 14:51:00,
2013-05-03 09:52:00,37.0,28.5,30.49,NNW,337,17.2,24.0,71,0.00,CLR,,0.00,WeatherDisplay:10.37,2013-05-03 14:52:00,
2013-05-03 09:53:00,37.0,28.8,30.49,NNW,337,20.7,26.5,72,0.00,CLR,,0.00,WeatherDisplay:10.37,2013-05-03 14:53:00,
2013-05-03 09:54:00,37.0,28.8,30.49,NNW,337,19.1,25.3,72,0.00,CLR,,0.00,WeatherDisplay:10.37,2013-05-03 14:54:00,
2013-05-03 09:56:00,37.0,28.5,30.49,NNW,337,15.8,25.3,71,0.00,CLR,,0.00,WeatherDisplay:10.37,2013-05-03 14:56:00,
2013-05-03 09:57:00,37.0,28.5,30.48,NNW,337,17.9,19.6,71,0.00,CLR,,0.00,WeatherDisplay:10.37,2013-05-03 14:57:00,
2013-05-03 09:58:00,37.0,28.1,30.48,NNW,337,14.9,24.2,70,0.00,CLR,,0.00,WeatherDisplay:10.37,2013-05-03 14:58:00,
2013-05-03 10:00:00,37.0,28.1,30.48,NW,315,17.5,21.0,70,0.00,CLR,,0.00,WeatherDisplay:10.37,2013-05-03 15:00:00,
2013-05-03 10:01:00,37.0,29.1,30.48,NW,315,19.7,26.5,73,0.00,CLR,,0.00,WeatherDisplay:10.37,2013-05-03 15:01:00,
2013-05-03 10:03:00,37.0,27.8,30.48,NNW,337,19.7,26.5,69,0.00,CLR,,0.00,WeatherDisplay:10.37,2013-05-03 15:03:00,
2013-05-03 10:05:00,37.0,27.8,30.48,NNW,337,21.0,23.0,69,0.00,CLR,,0.00,WeatherDisplay:10.37,2013-05-03 15:05:00,
2013-05-03 10:06:00,37.0,27.8,30.48,NNW,337,19.3,27.6,69,0.00,CLR,,0.00,WeatherDisplay:10.37,2013-05-03 15:06:00,
2013-05-03 10:07:00,37.0,28.5,30.48,NNW,337,14.7,20.7,71,0.00,CLR,,0.00,WeatherDisplay:10.37,2013-05-03 15:07:00,
2013-05-03 10:08:00,37.0,28.5,30.48,NNW,337,16.2,20.7,71,0.00,CLR,,0.00,WeatherDisplay:10.37,2013-05-03 15:08:00,
2013-05-03 10:09:00,37.0,28.8,30.48,NNW,337,17.7,24.2,72,0.00,CLR,,0.00,WeatherDisplay:10.37,2013-05-03 15:09:00,
2013-05-03 10:10:00,37.0,28.5,30.48,NNW,337,19.9,24.0,71,0.00,CLR,,0.00,WeatherDisplay:10.37,2013-05-03 15:10:00,
2013-05-03 10:11:00,37.0,27.8,30.48,NNW,337,20.6,28.8,69,0.00,CLR,,0.00,WeatherDisplay:10.37,2013-05-03 15:11:00,
2013-05-03 10:12:00,37.0,28.1,30.48,NNW,337,16.9,24.2,70,0.00,CLR,,0.00,WeatherDisplay:10.37,2013-05-03 15:12:00,
2013-05-03 10:13:00,38.0,28.4,30.48,NNW,337,16.6,20.7,68,0.00,CLR,,0.00,WeatherDisplay:10.37,2013-05-03 15:13:00,
2013-05-03 10:14:00,38.0,28.0,30.48,NNW,337,15.1,20.0,67,0.00,CLR,,0.00,WeatherDisplay:10.37,2013-05-03 15:14:00,
2013-05-03 10:15:00,38.0,28.4,30.48,NNW,337,17.2,24.0,68,0.00,CLR,,0.00,WeatherDisplay:10.37,2013-05-03 15:15:00,
2013-05-03 10:16:00,38.0,28.0,30.47,NNW,337,18.2,24.2,67,0.00,CLR,,0.00,WeatherDisplay:10.37,2013-05-03 15:16:00,
2013-05-03 10:17:00,38.0,28.7,30.47,NNW,337,18.9,23.0,69,0.00,CLR,,0.00,WeatherDisplay:10.37,2013-05-03 15:17:00,
2013-05-03 10:18:00,38.0,27.6,30.47,NNW,337,16.2,21.9,66,0.00,CLR,,0.00,WeatherDisplay:10.37,2013-05-03 15:18:00,
2013-05-03 10:19:00,38.0,27.3,30.47,North,360,19.1,24.2,65,0.00,CLR,,0.00,WeatherDisplay:10.37,2013-05-03 15:19:00,
2013-05-03 10:20:00,38.0,27.6,30.47,NNW,337,16.9,26.5,66,0.00,CLR,,0.00,WeatherDisplay:10.37,2013-05-03 15:20:00,
2013-05-03 10:21:00,38.0,27.3,30.47,NNE,22,16.5,23.0,65,0.00,CLR,,0.00,WeatherDisplay:10.37,2013-05-03 15:21:00,
2013-05-03 10:22:00,39.0,28.6,30.47,NNW,337,18.6,23.0,66,0.00,CLR,,0.00,WeatherDisplay:10.37,2013-05-03 15:22:00,
2013-05-03 10:23:00,39.0,29.3,30.47,NNW,337,19.5,26.5,68,0.00,CLR,,0.00,WeatherDisplay:10.37,2013-05-03 15:23:00,
2013-05-03 10:24:00,39.0,30.0,30.47,NNW,337,14.8,24.2,70,0.00,CLR,,0.00,WeatherDisplay:10.37,2013-05-03 15:24:00,
2013-05-03 10:26:00,40.0,29.6,30.46,North,360,16.9,21.9,66,0.00,CLR,,0.00,WeatherDisplay:10.37,2013-05-03 15:26:00,
2013-05-03 10:27:00,40.0,29.2,30.46,NNW,337,18.2,22.0,65,0.00,CLR,,0.00,WeatherDisplay:10.37,2013-05-03 15:27:00,
2013-05-03 10:28:00,40.0,28.8,30.46,North,360,16.2,26.5,64,0.00,CLR,,0.00,WeatherDisplay:10.37,2013-05-03 15:28:00,
2013-05-03 10:29:00,39.0,26.7,30.46,North,360,23.2,31.1,61,0.00,CLR,,0.00,WeatherDisplay:10.37,2013-05-03 15:29:00,
2013-05-03 10:31:00,39.0,27.8,30.46,NNW,337,21.2,28.8,64,0.00,CLR,,0.00,WeatherDisplay:10.37,2013-05-03 15:31:00,
2013-05-03 10:32:00,39.0,27.8,30.46,NNW,337,18.8,26.5,64,0.00,CLR,,0.00,WeatherDisplay:10.37,2013-05-03 15:32:00,
2013-05-03 10:33:00,39.0,27.8,30.46,NNW,337,19.9,25.3,64,0.00,CLR,,0.00,WeatherDisplay:10.37,2013-05-03 15:33:00,
2013-05-03 10:34:00,39.0,28.2,30.46,NNW,337,16.8,26.5,65,0.00,CLR,,0.00,WeatherDisplay:10.37,2013-05-03 15:34:00,
2013-05-03 10:36:00,39.0,29.0,30.45,NNW,337,20.7,32.2,67,0.00,CLR,,0.00,WeatherDisplay:10.37,2013-05-03 15:36:00,
2013-05-03 10:37:00,38.0,27.6,30.45,NNW,337,20.0,26.5,66,0.00,CLR,,0.00,WeatherDisplay:10.37,2013-05-03 15:37:00,
2013-05-03 10:38:00,39.0,30.0,30.45,NNW,337,16.8,26.5,70,0.00,CLR,,0.00,WeatherDisplay:10.37,2013-05-03 15:38:00,
2013-05-03 10:40:00,39.0,29.0,30.45,NW,315,18.8,26.5,67,0.00,CLR,,0.00,WeatherDisplay:10.37,2013-05-03 15:40:00,
2013-05-03 10:41:00,39.0,29.3,30.45,NNW,337,17.6,22.0,68,0.00,CLR,,0.00,WeatherDisplay:10.37,2013-05-03 15:41:00,
2013-05-03 10:42:00,39.0,29.3,30.45,NNW,337,23.2,31.1,68,0.00,CLR,,0.00,WeatherDisplay:10.37,2013-05-03 15:42:00,
2013-05-03 10:43:00,39.0,29.3,30.45,NW,315,20.3,26.5,68,0.00,CLR,,0.00,WeatherDisplay:10.37,2013-05-03 15:43:00,
2013-05-03 10:45:00,38.0,28.0,30.45,NNW,337,21.1,26.5,67,0.00,CLR,,0.00,WeatherDisplay:10.37,2013-05-03 15:45:00,
2013-05-03 10:46:00,38.0,28.7,30.45,NNW,337,20.7,26.5,69,0.00,CLR,,0.00,WeatherDisplay:10.37,2013-05-03 15:46:00,
2013-05-03 10:47:00,38.0,29.4,30.45,NNW,337,17.7,23.0,71,0.00,CLR,,0.00,WeatherDisplay:10.37,2013-05-03 15:47:00,
2013-05-03 10:48:00,39.0,30.0,30.45,NNW,337,13.5,21.0,70,0.00,CLR,,0.00,WeatherDisplay:10.37,2013-05-03 15:48:00,
2013-05-03 10:50:00,39.0,29.0,30.45,NNW,337,21.1,29.0,67,0.00,CLR,,0.00,WeatherDisplay:10.37,2013-05-03 15:50:00,
2013-05-03 10:51:00,38.0,27.6,30.45,NNW,337,22.0,31.1,66,0.00,CLR,,0.00,WeatherDisplay:10.37,2013-05-03 15:51:00,
2013-05-03 10:52:00,38.0,29.1,30.45,NW,315,23.0,26.5,70,0.00,CLR,,0.00,WeatherDisplay:10.37,2013-05-03 15:52:00,
2013-05-03 10:53:00,39.0,30.0,30.45,NNW,337,16.5,26.5,70,0.00,CLR,,0.00,WeatherDisplay:10.37,2013-05-03 15:53:00,
2013-05-03 10:55:00,39.0,29.7,30.45,NNW,337,14.2,19.6,69,0.00,CLR,,0.00,WeatherDisplay:10.37,2013-05-03 15:55:00,
2013-05-03 10:56:00,39.0,28.2,30.44,NNW,337,20.3,24.0,65,0.00,CLR,,0.00,WeatherDisplay:10.37,2013-05-03 15:56:00,
2013-05-03 10:57:00,39.0,29.7,30.44,NNW,337,18.4,26.5,69,0.00,CLR,,0.00,WeatherDisplay:10.37,2013-05-03 15:57:00,
2013-05-03 10:58:00,39.0,28.2,30.44,NNW,337,19.6,29.9,65,0.00,CLR,,0.00,WeatherDisplay:10.37,2013-05-03 15:58:00,
2013-05-03 11:01:00,39.0,29.0,30.44,NW,315,23.5,34.0,67,0.00,CLR,,0.00,WeatherDisplay:10.37,2013-05-03 16:01:00,
2013-05-03 11:02:00,39.0,29.3,30.44,NNW,337,21.8,34.5,68,0.00,CLR,,0.00,WeatherDisplay:10.37,2013-05-03 16:02:00,
2013-05-03 11:03:00,39.0,29.3,30.44,NNW,337,18.5,24.2,68,0.00,CLR,,0.00,WeatherDisplay:10.37,2013-05-03 16:03:00,
2013-05-03 11:06:00,39.0,29.3,30.45,North,360,15.5,26.5,68,0.00,CLR,,0.00,WeatherDisplay:10.37,2013-05-03 16:06:00,
2013-05-03 11:07:00,39.0,29.7,30.45,NNE,22,14.3,22.0,69,0.00,CLR,,0.00,WeatherDisplay:10.37,2013-05-03 16:07:00,
2013-05-03 11:08:00,39.0,28.6,30.45,NNE,22,17.3,26.5,66,0.00,CLR,,0.00,WeatherDisplay:10.37,2013-05-03 16:08:00,
2013-05-03 11:09:00,39.0,28.6,30.45,NNW,337,17.1,24.2,66,0.00,CLR,,0.00,WeatherDisplay:10.37,2013-05-03 16:09:00,
2013-05-03 11:12:00,39.0,28.6,30.45,NNW,337,22.3,28.8,66,0.00,CLR,,0.00,WeatherDisplay:10.37,2013-05-03 16:12:00,
2013-05-03 11:13:00,39.0,28.6,30.45,NNW,337,19.4,26.5,66,0.00,CLR,,0.00,WeatherDisplay:10.37,2013-05-03 16:13:00,
2013-05-03 11:14:00,39.0,29.3,30.45,NNW,337,17.3,24.2,68,0.00,CLR,,0.00,WeatherDisplay:10.37,2013-05-03 16:14:00,
2013-05-03 11:17:00,39.0,28.6,30.43,NNW,337,20.3,26.5,66,0.00,CLR,,0.00,WeatherDisplay:10.37,2013-05-03 16:17:00,
2013-05-03 11:18:00,39.0,28.6,30.43,NNW,337,18.2,26.5,66,0.00,CLR,,0.00,WeatherDisplay:10.37,2013-05-03 16:18:00,
2013-05-03 11:19:00,39.0,28.6,30.43,NW,315,19.8,26.5,66,0.00,CLR,,0.00,WeatherDisplay:10.37,2013-05-03 16:19:00,
2013-05-03 11:22:00,39.0,28.2,30.43,NNW,337,21.5,26.5,65,0.00,CLR,,0.00,WeatherDisplay:10.37,2013-05-03 16:22:00,
2013-05-03 11:23:00,39.0,28.6,30.43,NNW,337,19.6,31.1,66,0.00,CLR,,0.00,WeatherDisplay:10.37,2013-05-03 16:23:00,
2013-05-03 11:24:00,40.0,29.6,30.43,NNW,337,19.1,23.0,66,0.00,CLR,,0.00,WeatherDisplay:10.37,2013-05-03 16:24:00,
2013-05-03 11:27:00,41.0,30.1,30.44,NNE,22,15.8,18.4,65,0.00,CLR,,0.00,WeatherDisplay:10.37,2013-05-03 16:27:00,
2013-05-03 11:28:00,41.0,29.0,30.44,NNW,337,18.7,26.5,62,0.00,CLR,,0.00,WeatherDisplay:10.37,2013-05-03 16:28:00,
2013-05-03 11:29:00,41.0,29.7,30.44,NNW,337,18.0,26.5,64,0.00,CLR,,0.00,WeatherDisplay:10.37,2013-05-03 16:29:00,
2013-05-03 11:32:00,41.0,30.1,30.44,North,360,18.0,26.0,65,0.00,CLR,,0.00,WeatherDisplay:10.37,2013-05-03 16:32:00,
2013-05-03 11:33:00,41.0,28.6,30.44,NNW,337,19.9,26.5,61,0.00,CLR,,0.00,WeatherDisplay:10.37,2013-05-03 16:33:00,
2013-05-03 11:34:00,41.0,29.4,30.44,North,360,15.6,25.3,63,0.00,CLR,,0.00,WeatherDisplay:10.37,2013-05-03 16:34:00,
2013-05-03 11:38:00,40.0,28.8,30.43,NNE,22,13.9,19.6,64,0.00,CLR,,0.00,WeatherDisplay:10.37,2013-05-03 16:38:00,
2013-05-03 11:39:00,40.0,28.4,30.43,North,360,17.3,26.5,63,0.00,CLR,,0.00,WeatherDisplay:10.37,2013-05-03 16:39:00,
2013-05-03 11:43:00,40.0,29.2,30.43,NNW,337,16.1,20.7,65,0.00,CLR,,0.00,WeatherDisplay:10.37,2013-05-03 16:43:00,
2013-05-03 11:44:00,40.0,29.2,30.43,NNW,337,15.2,19.6,65,0.00,CLR,,0.00,WeatherDisplay:10.37,2013-05-03 16:44:00,
2013-05-03 11:45:00,40.0,28.0,30.43,NNW,337,19.5,24.0,62,0.00,CLR,,0.00,WeatherDisplay:10.37,2013-05-03 16:45:00,
2013-05-03 11:48:00,40.0,28.4,30.43,North,360,16.7,24.2,63,0.00,CLR,,0.00,WeatherDisplay:10.37,2013-05-03 16:48:00,
2013-05-03 11:49:00,40.0,28.4,30.43,NNE,22,16.5,23.0,63,0.00,CLR,,0.00,WeatherDisplay:10.37,2013-05-03 16:49:00,
2013-05-03 11:50:00,40.0,28.4,30.43,North,360,15.6,23.0,63,0.00,CLR,,0.00,WeatherDisplay:10.37,2013-05-03 16:50:00,
2013-05-03 11:53:00,41.0,30.9,30.43,NW,315,14.2,19.6,67,0.00,CLR,,0.00,WeatherDisplay:10.37,2013-05-03 16:53:00,
2013-05-03 11:54:00,41.0,30.9,30.43,NNW,337,13.2,19.6,67,0.00,CLR,,0.00,WeatherDisplay:10.37,2013-05-03 16:54:00,
2013-05-03 11:55:00,41.0,29.4,30.43,NNE,22,15.7,23.0,63,0.00,CLR,,0.00,WeatherDisplay:10.37,2013-05-03 16:55:00,
2013-05-03 11:58:00,42.0,30.7,30.43,North,360,16.9,26.5,64,0.00,CLR,,0.00,WeatherDisplay:10.37,2013-05-03 16:58:00,
2013-05-03 11:59:00,42.0,30.7,30.43,North,360,15.0,26.5,64,0.00,CLR,,0.00,WeatherDisplay:10.37,2013-05-03 16:59:00,
2013-05-03 12:00:00,42.0,29.1,30.43,NNW,337,22.0,26.5,60,0.00,CLR,,0.00,WeatherDisplay:10.37,2013-05-03 17:00:00,
2013-05-03 12:03:00,42.0,29.1,30.43,NNW,337,18.9,24.2,60,0.00,CLR,,0.00,WeatherDisplay:10.37,2013-05-03 17:03:00,
2013-05-03 12:04:00,42.0,29.1,30.43,NNW,337,20.5,25.3,60,0.00,CLR,,0.00,WeatherDisplay:10.37,2013-05-03 17:04:00,
2013-05-03 12:05:00,41.0,28.6,30.43,NNW,337,13.6,26.5,61,0.00,CLR,,0.00,WeatherDisplay:10.37,2013-05-03 17:05:00,
2013-05-03 12:08:00,41.0,29.4,30.42,NNE,22,15.0,25.3,63,0.00,CLR,,0.00,WeatherDisplay:10.37,2013-05-03 17:08:00,
2013-05-03 12:09:00,41.0,29.0,30.42,NNW,337,14.5,24.2,62,0.00,CLR,,0.00,WeatherDisplay:10.37,2013-05-03 17:09:00,
2013-05-03 12:10:00,42.0,29.9,30.42,North,360,16.0,20.7,62,0.00,CLR,,0.00,WeatherDisplay:10.37,2013-05-03 17:10:00,
2013-05-03 12:13:00,42.0,29.1,30.42,NNW,337,21.8,26.5,60,0.00,CLR,,0.00,WeatherDisplay:10.37,2013-05-03 17:13:00,
2013-05-03 12:14:00,42.0,30.3,30.42,North,360,15.0,27.6,63,0.00,CLR,,0.00,WeatherDisplay:10.37,2013-05-03 17:14:00,
2013-05-03 12:15:00,42.0,29.5,30.42,NNE,22,14.0,19.6,61,0.00,CLR,,0.00,WeatherDisplay:10.37,2013-05-03 17:15:00,
2013-05-03 12:16:00,43.0,30.5,30.41,NNW,337,13.0,23.0,61,0.00,CLR,,0.00,WeatherDisplay:10.37,2013-05-03 17:16:00,
2013-05-03 12:19:00,43.0,29.6,30.41,NNW,337,19.0,23.0,59,0.00,CLR,,0.00,WeatherDisplay:10.37,2013-05-03 17:19:00,
2013-05-03 12:21:00,43.0,30.5,30.41,North,360,19.3,28.0,61,0.00,CLR,,0.00,WeatherDisplay:10.37,2013-05-03 17:21:00,
2013-05-03 12:24:00,42.0,30.7,30.41,NNE,22,15.0,26.5,64,0.00,CLR,,0.00,WeatherDisplay:10.37,2013-05-03 17:24:00,
2013-05-03 12:25:00,42.0,30.7,30.41,NNW,337,12.4,19.6,64,0.00,CLR,,0.00,WeatherDisplay:10.37,2013-05-03 17:25:00,
2013-05-03 12:26:00,42.0,29.9,30.41,NW,315,14.3,19.6,62,0.00,CLR,,0.00,WeatherDisplay:10.37,2013-05-03 17:26:00,
2013-05-03 12:29:00,43.0,30.9,30.41,NNW,337,17.3,20.0,62,0.00,CLR,,0.00,WeatherDisplay:10.37,2013-05-03 17:29:00,
2013-05-03 12:30:00,43.0,30.9,30.41,NNW,337,17.9,24.2,62,0.00,CLR,,0.00,WeatherDisplay:10.37,2013-05-03 17:30:00,
2013-05-03 12:31:00,43.0,29.6,30.41,NNW,337,22.3,32.2,59,0.00,CLR,,0.00,WeatherDisplay:10.37,2013-05-03 17:31:00,
2013-05-03 12:35:00,43.0,30.5,30.41,NNW,337,17.3,20.7,61,0.00,CLR,,0.00,WeatherDisplay:10.37,2013-05-03 17:35:00,
2013-05-03 12:36:00,43.0,29.6,30.40,North,360,17.2,24.2,59,0.00,CLR,,0.00,WeatherDisplay:10.37,2013-05-03 17:36:00,
2013-05-03 12:37:00,43.0,29.6,30.40,NNE,22,16.2,20.7,59,0.00,CLR,,0.00,WeatherDisplay:10.37,2013-05-03 17:37:00,
2013-05-03 12:40:00,42.0,29.9,30.40,NNW,337,21.7,28.8,62,0.00,CLR,,0.00,WeatherDisplay:10.37,2013-05-03 17:40:00,
2013-05-03 12:42:00,42.0,29.5,30.40,NNE,22,16.4,23.0,61,0.00,CLR,,0.00,WeatherDisplay:10.37,2013-05-03 17:42:00,
2013-05-03 12:45:00,43.0,30.1,30.40,NNW,337,20.3,25.3,60,0.00,CLR,,0.00,WeatherDisplay:10.37,2013-05-03 17:45:00,
2013-05-03 12:47:00,42.0,29.5,30.40,NNW,337,18.0,26.5,61,0.00,CLR,,0.00,WeatherDisplay:10.37,2013-05-03 17:47:00,
2013-05-03 12:50:00,42.0,30.3,30.40,NNW,337,16.1,24.2,63,0.00,CLR,,0.00,WeatherDisplay:10.37,2013-05-03 17:50:00,
2013-05-03 12:51:00,42.0,29.9,30.40,NW,315,17.7,24.2,62,0.00,CLR,,0.00,WeatherDisplay:10.37,2013-05-03 17:51:00,
2013-05-03 12:52:00,43.0,30.9,30.40,NNW,337,14.6,24.2,62,0.00,CLR,,0.00,WeatherDisplay:10.37,2013-05-03 17:52:00,
2013-05-03 12:55:00,43.0,30.5,30.40,NNW,337,15.4,17.3,61,0.00,CLR,,0.00,WeatherDisplay:10.37,2013-05-03 17:55:00,
2013-05-03 12:56:00,44.0,31.0,30.39,North,360,14.7,21.9,60,0.00,CLR,,0.00,WeatherDisplay:10.37,2013-05-03 17:56:00,
2013-05-03 12:57:00,43.0,29.6,30.39,NNW,337,20.1,24.2,59,0.00,CLR,,0.00,WeatherDisplay:10.37,2013-05-03 17:57:00,
2013-05-03 12:58:00,43.0,29.6,30.39,NNW,337,21.2,26.5,59,0.00,CLR,,0.00,WeatherDisplay:10.37,2013-05-03 17:58:00,
2013-05-03 13:00:00,43.0,30.5,30.39,North,360,15.8,24.2,61,0.00,CLR,,0.00,WeatherDisplay:10.37,2013-05-03 18:00:00,
2013-05-03 13:01:00,43.0,28.8,30.39,North,360,19.8,23.0,57,0.00,CLR,,0.00,WeatherDisplay:10.37,2013-05-03 18:01:00,
2013-05-03 13:02:00,43.0,28.8,30.39,WSW,247,8.7,23.0,57,0.00,CLR,,0.00,WeatherDisplay:10.37,2013-05-03 18:02:00,
2013-05-03 13:03:00,44.0,30.2,30.39,NNW,337,11.7,22.0,58,0.00,CLR,,0.00,WeatherDisplay:10.37,2013-05-03 18:03:00,
2013-05-03 13:06:00,44.0,31.4,30.39,NNW,337,20.3,24.2,61,0.00,CLR,,0.00,WeatherDisplay:10.37,2013-05-03 18:06:00,
2013-05-03 13:07:00,44.0,30.6,30.38,North,360,15.6,26.5,59,0.00,CLR,,0.00,WeatherDisplay:10.37,2013-05-03 18:07:00,
2013-05-03 13:08:00,44.0,31.0,30.38,NNW,337,17.8,20.7,60,0.00,CLR,,0.00,WeatherDisplay:10.37,2013-05-03 18:08:00,
2013-05-03 13:11:00,44.0,31.4,30.38,NNW,337,15.0,18.4,61,0.00,CLR,,0.00,WeatherDisplay:10.37,2013-05-03 18:11:00,
2013-05-03 13:12:00,44.0,29.3,30.38,NNW,337,19.5,25.3,56,0.00,CLR,,0.00,WeatherDisplay:10.37,2013-05-03 18:12:00,
2013-05-03 13:13:00,44.0,29.7,30.38,NNE,22,16.2,21.9,57,0.00,CLR,,0.00,WeatherDisplay:10.37,2013-05-03 18:13:00,
2013-05-03 13:16:00,44.0,29.7,30.38,NNW,337,16.8,26.5,57,0.00,CLR,,0.00,WeatherDisplay:10.37,2013-05-03 18:16:00,
2013-05-03 13:17:00,44.0,30.2,30.39,NNW,337,17.9,22.0,58,0.00,CLR,,0.00,WeatherDisplay:10.37,2013-05-03 18:17:00,
2013-05-03 13:18:00,44.0,30.2,30.39,NNW,337,17.6,21.9,58,0.00,CLR,,0.00,WeatherDisplay:10.37,2013-05-03 18:18:00,
2013-05-03 13:21:00,44.0,31.8,30.39,NNW,337,15.1,21.9,62,0.00,CLR,,0.00,WeatherDisplay:10.37,2013-05-03 18:21:00,
2013-05-03 13:23:00,44.0,30.2,30.39,North,360,19.0,25.3,58,0.00,CLR,,0.00,WeatherDisplay:10.37,2013-05-03 18:23:00,
2013-05-03 13:24:00,43.0,29.6,30.39,NNW,337,15.1,21.9,59,0.00,CLR,,0.00,WeatherDisplay:10.37,2013-05-03 18:24:00,
2013-05-03 13:26:00,44.0,31.4,30.38,NNW,337,13.3,18.4,61,0.00,CLR,,0.00,WeatherDisplay:10.37,2013-05-03 18:26:00,
2013-05-03 13:28:00,43.0,30.5,30.38,North,360,14.8,20.7,61,0.00,CLR,,0.00,WeatherDisplay:10.37,2013-05-03 18:28:00,
2013-05-03 13:29:00,43.0,31.3,30.38,NNW,337,12.0,19.6,63,0.00,CLR,,0.00,WeatherDisplay:10.37,2013-05-03 18:29:00,
2013-05-03 13:31:00,44.0,31.4,30.38,NW,315,16.5,24.2,61,0.00,CLR,,0.00,WeatherDisplay:10.37,2013-05-03 18:31:00,
2013-05-03 13:33:00,43.0,30.5,30.38,NNW,337,16.3,20.7,61,0.00,CLR,,0.00,WeatherDisplay:10.37,2013-05-03 18:33:00,
2013-05-03 13:34:00,43.0,30.5,30.38,NNW,337,13.2,18.4,61,0.00,CLR,,0.00,WeatherDisplay:10.37,2013-05-03 18:34:00,
2013-05-03 13:36:00,44.0,31.4,30.37,NNE,22,16.7,21.0,61,0.00,CLR,,0.00,WeatherDisplay:10.37,2013-05-03 18:36:00,
2013-05-03 13:37:00,44.0,31.0,30.37,NNE,22,18.9,26.5,60,0.00,CLR,,0.00,WeatherDisplay:10.37,2013-05-03 18:37:00,
2013-05-03 13:38:00,44.0,31.0,30.37,North,360,15.7,21.9,60,0.00,CLR,,0.00,WeatherDisplay:10.37,2013-05-03 18:38:00,
2013-05-03 13:39:00,44.0,31.4,30.37,NNE,22,14.0,19.6,61,0.00,CLR,,0.00,WeatherDisplay:10.37,2013-05-03 18:39:00,
2013-05-03 13:42:00,44.0,30.6,30.37,North,360,12.8,19.6,59,0.00,CLR,,0.00,WeatherDisplay:10.37,2013-05-03 18:42:00,
2013-05-03 13:44:00,44.0,31.0,30.37,WSW,247,14.1,24.2,60,0.00,CLR,,0.00,WeatherDisplay:10.37,2013-05-03 18:44:00,
2013-05-03 13:45:00,44.0,31.0,30.37,North,360,8.0,20.7,60,0.00,CLR,,0.00,WeatherDisplay:10.37,2013-05-03 18:45:00,
2013-05-03 13:47:00,44.0,29.7,30.37,NE,45,14.7,19.6,57,0.00,CLR,,0.00,WeatherDisplay:10.37,2013-05-03 18:47:00,
2013-05-03 13:49:00,44.0,28.9,30.37,NNW,337,18.2,21.0,55,0.00,CLR,,0.00,WeatherDisplay:10.37,2013-05-03 18:49:00,
2013-05-03 13:50:00,44.0,29.7,30.37,North,360,17.0,23.0,57,0.00,CLR,,0.00,WeatherDisplay:10.37,2013-05-03 18:50:00,
2013-05-03 13:52:00,44.0,29.7,30.37,NNW,337,19.9,26.5,57,0.00,CLR,,0.00,WeatherDisplay:10.37,2013-05-03 18:52:00,
2013-05-03 13:54:00,44.0,30.2,30.37,NNW,337,17.5,21.9,58,0.00,CLR,,0.00,WeatherDisplay:10.37,2013-05-03 18:54:00,
2013-05-03 13:55:00,44.0,29.7,30.37,NNE,22,18.3,26.5,57,0.00,CLR,,0.00,WeatherDisplay:10.37,2013-05-03 18:55:00,
2013-05-03 13:57:00,44.0,30.2,30.36,NNE,22,12.7,19.6,58,0.00,CLR,,0.00,WeatherDisplay:10.37,2013-05-03 18:57:00,
2013-05-03 13:59:00,44.0,29.7,30.36,North,360,19.1,26.5,57,0.00,CLR,,0.00,WeatherDisplay:10.37,2013-05-03 18:59:00,
2013-05-03 14:00:00,44.0,29.7,30.36,North,360,14.6,25.3,57,0.00,CLR,,0.00,WeatherDisplay:10.37,2013-05-03 19:00:00,
2013-05-03 14:02:00,44.0,31.0,30.36,NNE,22,13.9,25.0,60,0.00,CLR,,0.00,WeatherDisplay:10.37,2013-05-03 19:02:00,
2013-05-03 14:03:00,44.0,29.7,30.36,NNE,22,16.8,25.3,57,0.00,CLR,,0.00,WeatherDisplay:10.37,2013-05-03 19:03:00,
2013-05-03 14:04:00,44.0,30.2,30.36,NNE,22,14.4,24.2,58,0.00,CLR,,0.00,WeatherDisplay:10.37,2013-05-03 19:04:00,
2013-05-03 14:05:00,44.0,29.7,30.36,North,360,18.7,21.9,57,0.00,CLR,,0.00,WeatherDisplay:10.37,2013-05-03 19:05:00,
2013-05-03 14:08:00,44.0,30.2,30.36,NNW,337,15.2,19.6,58,0.00,CLR,,0.00,WeatherDisplay:10.37,2013-05-03 19:08:00,
2013-05-03 14:09:00,44.0,30.2,30.36,North,360,18.8,28.8,58,0.00,CLR,,0.00,WeatherDisplay:10.37,2013-05-03 19:09:00,
2013-05-03 14:10:00,44.0,30.2,30.36,NNE,22,17.6,24.2,58,0.00,CLR,,0.00,WeatherDisplay:10.37,2013-05-03 19:10:00,
2013-05-03 14:13:00,44.0,30.2,30.36,NNW,337,15.5,23.0,58,0.00,CLR,,0.00,WeatherDisplay:10.37,2013-05-03 19:13:00,
2013-05-03 14:15:00,44.0,29.7,30.36,NNE,22,17.4,25.3,57,0.00,CLR,,0.00,WeatherDisplay:10.37,2013-05-03 19:15:00,
2013-05-03 14:16:00,44.0,29.3,30.36,North,360,7.2,22.0,56,0.00,CLR,,0.00,WeatherDisplay:10.37,2013-05-03 19:16:00,
2013-05-03 14:18:00,44.0,30.2,30.36,NNW,337,14.8,19.6,58,0.00,CLR,,0.00,WeatherDisplay:10.37,2013-05-03 19:18:00,
2013-05-03 14:20:00,44.0,30.2,30.36,NNE,22,13.0,19.6,58,0.00,CLR,,0.00,WeatherDisplay:10.37,2013-05-03 19:20:00,
2013-05-03 14:21:00,45.0,31.1,30.36,NNE,22,14.8,19.6,58,0.00,CLR,,0.00,WeatherDisplay:10.37,2013-05-03 19:21:00,
2013-05-03 14:23:00,44.0,29.3,30.36,NNE,22,17.8,23.0,56,0.00,CLR,,0.00,WeatherDisplay:10.37,2013-05-03 19:23:00,
2013-05-03 14:25:00,45.0,31.9,30.36,NNE,22,13.0,19.6,60,0.00,CLR,,0.00,WeatherDisplay:10.37,2013-05-03 19:25:00,
2013-05-03 14:26:00,45.0,31.1,30.36,NNE,22,6.7,19.6,58,0.00,CLR,,0.00,WeatherDisplay:10.37,2013-05-03 19:26:00,
2013-05-03 14:29:00,45.0,30.7,30.36,NNE,22,19.3,26.5,57,0.00,CLR,,0.00,WeatherDisplay:10.37,2013-05-03 19:29:00,
2013-05-03 14:30:00,45.0,31.1,30.36,NNE,22,16.5,25.3,58,0.00,CLR,,0.00,WeatherDisplay:10.37,2013-05-03 19:30:00,
2013-05-03 14:31:00,45.0,30.7,30.36,NNW,337,15.5,21.9,57,0.00,CLR,,0.00,WeatherDisplay:10.37,2013-05-03 19:31:00,
2013-05-03 14:34:00,45.0,31.1,30.36,NNW,337,18.1,23.0,58,0.00,CLR,,0.00,WeatherDisplay:10.37,2013-05-03 19:34:00,
2013-05-03 14:35:00,45.0,31.1,30.36,WSW,247,12.4,26.5,58,0.00,CLR,,0.00,WeatherDisplay:10.37,2013-05-03 19:35:00,
2013-05-03 14:36:00,44.0,29.7,30.35,NNW,337,19.7,25.3,57,0.00,CLR,,0.00,WeatherDisplay:10.37,2013-05-03 19:36:00,
2013-05-03 14:39:00,44.0,30.6,30.35,North,360,14.0,21.9,59,0.00,CLR,,0.00,WeatherDisplay:10.37,2013-05-03 19:39:00,
2013-05-03 14:40:00,45.0,30.7,30.35,NNW,337,14.7,17.3,57,0.00,CLR,,0.00,WeatherDisplay:10.37,2013-05-03 19:40:00,
2013-05-03 14:41:00,45.0,30.7,30.35,NNW,337,15.8,19.6,57,0.00,CLR,,0.00,WeatherDisplay:10.37,2013-05-03 19:41:00,
2013-05-03 14:42:00,45.0,30.7,30.35,North,360,15.5,20.7,57,0.00,CLR,,0.00,WeatherDisplay:10.37,2013-05-03 19:42:00,
2013-05-03 14:44:00,45.0,29.8,30.35,NNW,337,13.0,21.9,55,0.00,CLR,,0.00,WeatherDisplay:10.37,2013-05-03 19:44:00,
2013-05-03 14:45:00,45.0,29.8,30.35,NNW,337,18.8,20.0,55,0.00,CLR,,0.00,WeatherDisplay:10.37,2013-05-03 19:45:00,
2013-05-03 14:46:00,45.0,29.8,30.35,NNW,337,19.4,26.5,55,0.00,CLR,,0.00,WeatherDisplay:10.37,2013-05-03 19:46:00,
2013-05-03 14:47:00,45.0,31.1,30.35,NNW,337,13.2,19.6,58,0.00,CLR,,0.00,WeatherDisplay:10.37,2013-05-03 19:47:00,
2013-05-03 14:50:00,45.0,30.7,30.35,NNE,22,12.5,19.0,57,0.00,CLR,,0.00,WeatherDisplay:10.37,2013-05-03 19:50:00,
2013-05-03 14:51:00,45.0,30.7,30.35,North,360,15.9,23.0,57,0.00,CLR,,0.00,WeatherDisplay:10.37,2013-05-03 19:51:00,
2013-05-03 14:52:00,45.0,31.1,30.35,NNW,337,12.0,19.6,58,0.00,CLR,,0.00,WeatherDisplay:10.37,2013-05-03 19:52:00,
2013-05-03 14:55:00,45.0,29.8,30.35,NNW,337,16.9,26.5,55,0.00,CLR,,0.00,WeatherDisplay:10.37,2013-05-03 19:55:00,
2013-05-03 14:56:00,45.0,30.7,30.34,North,360,19.3,26.5,57,0.00,CLR,,0.00,WeatherDisplay:10.37,2013-05-03 19:56:00,
2013-05-03 14:57:00,45.0,30.7,30.34,North,360,15.1,23.0,57,0.00,CLR,,0.00,WeatherDisplay:10.37,2013-05-03 19:57:00,
2013-05-03 15:00:00,45.0,30.7,30.34,North,360,15.4,20.7,57,0.00,CLR,,0.00,WeatherDisplay:10.37,2013-05-03 20:00:00,
2013-05-03 15:01:00,45.0,30.2,30.34,North,360,19.3,24.2,56,0.00,CLR,,0.00,WeatherDisplay:10.37,2013-05-03 20:01:00,
2013-05-03 15:02:00,45.0,30.7,30.34,North,360,14.2,25.3,57,0.00,CLR,,0.00,WeatherDisplay:10.37,2013-05-03 20:02:00,
2013-05-03 15:05:00,45.0,31.1,30.34,NNE,22,13.1,16.1,58,0.00,CLR,,0.00,WeatherDisplay:10.37,2013-05-03 20:05:00,
2013-05-03 15:06:00,45.0,30.7,30.34,NNE,22,12.4,19.6,57,0.00,CLR,,0.00,WeatherDisplay:10.37,2013-05-03 20:06:00,
2013-05-03 15:07:00,45.0,30.7,30.34,North,360,12.2,19.6,57,0.00,CLR,,0.00,WeatherDisplay:10.37,2013-05-03 20:07:00,
2013-05-03 15:10:00,45.0,31.5,30.34,NNW,337,14.1,27.6,59,0.00,CLR,,0.00,WeatherDisplay:10.37,2013-05-03 20:10:00,
2013-05-03 15:12:00,45.0,30.7,30.34,NNE,22,15.7,23.0,57,0.00,CLR,,0.00,WeatherDisplay:10.37,2013-05-03 20:12:00,
2013-05-03 15:13:00,45.0,30.7,30.34,NNE,22,15.2,23.0,57,0.00,CLR,,0.00,WeatherDisplay:10.37,2013-05-03 20:13:00,
2013-05-03 15:15:00,45.0,30.2,30.34,NNE,22,15.1,23.0,56,0.00,CLR,,0.00,WeatherDisplay:10.37,2013-05-03 20:15:00,
2013-05-03 15:17:00,45.0,29.8,30.33,NNE,22,17.9,25.3,55,0.00,CLR,,0.00,WeatherDisplay:10.37,2013-05-03 20:17:00,
2013-05-03 15:18:00,45.0,29.8,30.33,NNE,22,17.2,25.3,55,0.00,CLR,,0.00,WeatherDisplay:10.37,2013-05-03 20:18:00,
2013-05-03 15:20:00,44.0,30.2,30.33,North,360,13.9,24.2,58,0.00,CLR,,0.00,WeatherDisplay:10.37,2013-05-03 20:20:00,
2013-05-03 15:22:00,44.0,29.7,30.33,NNW,337,16.0,26.5,57,0.00,CLR,,0.00,WeatherDisplay:10.37,2013-05-03 20:22:00,
2013-05-03 15:23:00,44.0,30.2,30.33,North,360,17.8,24.2,58,0.00,CLR,,0.00,WeatherDisplay:10.37,2013-05-03 20:23:00,
2013-05-03 15:26:00,44.0,30.2,30.33,NNE,22,12.9,18.4,58,0.00,CLR,,0.00,WeatherDisplay:10.37,2013-05-03 20:26:00,
2013-05-03 15:27:00,44.0,30.2,30.34,North,360,16.3,23.0,58,0.00,CLR,,0.00,WeatherDisplay:10.37,2013-05-03 20:27:00,
2013-05-03 15:28:00,44.0,30.2,30.34,North,360,17.4,19.6,58,0.00,CLR,,0.00,WeatherDisplay:10.37,2013-05-03 20:28:00,
2013-05-03 15:31:00,44.0,30.6,30.34,North,360,16.2,20.7,59,0.00,CLR,,0.00,WeatherDisplay:10.37,2013-05-03 20:31:00,
2013-05-03 15:32:00,44.0,31.0,30.34,NNE,22,12.0,19.6,60,0.00,CLR,,0.00,WeatherDisplay:10.37,2013-05-03 20:32:00,
2013-05-03 15:33:00,44.0,30.6,30.34,NNE,22,11.1,19.6,59,0.00,CLR,,0.00,WeatherDisplay:10.37,2013-05-03 20:33:00,
2013-05-03 15:36:00,45.0,31.9,30.32,NNE,22,14.7,20.7,60,0.00,CLR,,0.00,WeatherDisplay:10.37,2013-05-03 20:36:00,
2013-05-03 15:37:00,44.0,30.2,30.32,North,360,15.7,24.2,58,0.00,CLR,,0.00,WeatherDisplay:10.37,2013-05-03 20:37:00,
2013-05-03 15:38:00,44.0,30.6,30.32,NNE,22,14.6,20.7,59,0.00,CLR,,0.00,WeatherDisplay:10.37,2013-05-03 20:38:00,
2013-05-03 15:39:00,44.0,30.6,30.32,NNE,22,13.8,20.7,59,0.00,CLR,,0.00,WeatherDisplay:10.37,2013-05-03 20:39:00,
2013-05-03 15:41:00,44.0,30.2,30.32,North,360,15.1,19.6,58,0.00,CLR,,0.00,WeatherDisplay:10.37,2013-05-03 20:41:00,
2013-05-03 15:42:00,44.0,30.2,30.32,NNW,337,14.1,15.0,58,0.00,CLR,,0.00,WeatherDisplay:10.37,2013-05-03 20:42:00,
2013-05-03 15:44:00,45.0,31.9,30.32,NNW,337,12.0,18.0,60,0.00,CLR,,0.00,WeatherDisplay:10.37,2013-05-03 20:44:00,
2013-05-03 15:46:00,45.0,31.1,30.33,NNW,337,11.9,19.6,58,0.00,CLR,,0.00,WeatherDisplay:10.37,2013-05-03 20:46:00,
2013-05-03 15:47:00,45.0,31.1,30.33,North,360,14.0,19.6,58,0.00,CLR,,0.00,WeatherDisplay:10.37,2013-05-03 20:47:00,
2013-05-03 15:49:00,44.0,30.6,30.33,NNW,337,9.5,15.0,59,0.00,CLR,,0.00,WeatherDisplay:10.37,2013-05-03 20:49:00,
2013-05-03 15:51:00,44.0,31.0,30.33,NNW,337,13.5,19.6,60,0.00,CLR,,0.00,WeatherDisplay:10.37,2013-05-03 20:51:00,
2013-05-03 15:53:00,44.0,31.0,30.33,ENE,67,14.2,20.7,60,0.00,CLR,,0.00,WeatherDisplay:10.37,2013-05-03 20:53:00,
2013-05-03 15:54:00,44.0,31.4,30.33,NNE,22,10.6,16.1,61,0.00,CLR,,0.00,WeatherDisplay:10.37,2013-05-03 20:54:00,
2013-05-03 15:55:00,44.0,31.4,30.33,NNE,22,10.5,15.0,61,0.00,CLR,,0.00,WeatherDisplay:10.37,2013-05-03 20:55:00,
2013-05-03 15:57:00,44.0,31.0,30.33,NNW,337,14.7,19.6,60,0.00,CLR,,0.00,WeatherDisplay:10.37,2013-05-03 20:57:00,
2013-05-03 15:58:00,44.0,31.4,30.33,NNE,22,11.8,17.3,61,0.00,CLR,,0.00,WeatherDisplay:10.37,2013-05-03 20:58:00,
2013-05-03 15:59:00,45.0,32.3,30.33,NNE,22,12.4,16.1,61,0.00,CLR,,0.00,WeatherDisplay:10.37,2013-05-03 20:59:00,
2013-05-03 16:00:00,44.0,30.2,30.33,NNE,22,13.8,18.0,58,0.00,CLR,,0.00,WeatherDisplay:10.37,2013-05-03 21:00:00,
2013-05-03 16:02:00,44.0,31.0,30.33,NNE,22,16.0,19.6,60,0.00,CLR,,0.00,WeatherDisplay:10.37,2013-05-03 21:02:00,
2013-05-03 16:03:00,44.0,30.6,30.33,NNW,337,16.3,19.6,59,0.00,CLR,,0.00,WeatherDisplay:10.37,2013-05-03 21:03:00,
2013-05-03 16:04:00,44.0,31.0,30.33,NNW,337,15.9,19.6,60,0.00,CLR,,0.00,WeatherDisplay:10.37,2013-05-03 21:04:00,
2013-05-03 16:05:00,44.0,31.0,30.33,NNW,337,14.5,19.6,60,0.00,CLR,,0.00,WeatherDisplay:10.37,2013-05-03 21:05:00,
2013-05-03 16:06:00,44.0,30.6,30.32,NE,45,15.5,19.6,59,0.00,CLR,,0.00,WeatherDisplay:10.37,2013-05-03 21:06:00,
2013-05-03 16:07:00,44.0,31.0,30.32,NNE,22,16.3,19.6,60,0.00,CLR,,0.00,WeatherDisplay:10.37,2013-05-03 21:07:00,
2013-05-03 16:09:00,44.0,30.6,30.32,NNE,22,14.7,20.7,59,0.00,CLR,,0.00,WeatherDisplay:10.37,2013-05-03 21:09:00,
2013-05-03 16:10:00,44.0,31.0,30.32,NNE,22,14.1,20.7,60,0.00,CLR,,0.00,WeatherDisplay:10.37,2013-05-03 21:10:00,
2013-05-03 16:11:00,44.0,31.0,30.32,NNE,22,12.6,18.4,60,0.00,CLR,,0.00,WeatherDisplay:10.37,2013-05-03 21:11:00,
2013-05-03 16:12:00,44.0,31.4,30.32,NNE,22,9.8,18.4,61,0.00,CLR,,0.00,WeatherDisplay:10.37,2013-05-03 21:12:00,
2013-05-03 16:14:00,44.0,31.0,30.32,NE,45,11.9,19.6,60,0.00,CLR,,0.00,WeatherDisplay:10.37,2013-05-03 21:14:00,
2013-05-03 16:15:00,44.0,31.0,30.32,NNE,22,12.8,19.6,60,0.00,CLR,,0.00,WeatherDisplay:10.37,2013-05-03 21:15:00,
2013-05-03 16:16:00,44.0,31.0,30.33,NNE,22,11.7,18.4,60,0.00,CLR,,0.00,WeatherDisplay:10.37,2013-05-03 21:16:00,
2013-05-03 16:17:00,44.0,30.6,30.33,NNE,22,12.9,18.4,59,0.00,CLR,,0.00,WeatherDisplay:10.37,2013-05-03 21:17:00,
2013-05-03 16:20:00,44.0,31.4,30.33,NNE,22,12.6,19.6,61,0.00,CLR,,0.00,WeatherDisplay:10.37,2013-05-03 21:20:00,
2013-05-03 16:21:00,44.0,31.0,30.33,NNE,22,13.3,19.6,60,0.00,CLR,,0.00,WeatherDisplay:10.37,2013-05-03 21:21:00,
2013-05-03 16:22:00,44.0,31.0,30.33,NNE,22,14.9,19.0,60,0.00,CLR,,0.00,WeatherDisplay:10.37,2013-05-03 21:22:00,
2013-05-03 16:25:00,44.0,30.6,30.33,NNE,22,15.8,19.6,59,0.00,CLR,,0.00,WeatherDisplay:10.37,2013-05-03 21:25:00,
2013-05-03 16:26:00,44.0,31.0,30.32,NNE,22,16.9,26.5,60,0.00,CLR,,0.00,WeatherDisplay:10.37,2013-05-03 21:26:00,
2013-05-03 16:27:00,44.0,30.2,30.32,NNE,22,17.5,20.7,58,0.00,CLR,,0.00,WeatherDisplay:10.37,2013-05-03 21:27:00,
2013-05-03 16:30:00,44.0,31.0,30.32,North,360,13.8,19.6,60,0.00,CLR,,0.00,WeatherDisplay:10.37,2013-05-03 21:30:00,
2013-05-03 16:31:00,44.0,31.0,30.32,North,360,12.5,18.4,60,0.00,CLR,,0.00,WeatherDisplay:10.37,2013-05-03 21:31:00,
2013-05-03 16:32:00,44.0,31.0,30.32,NNW,337,14.6,19.6,60,0.00,CLR,,0.00,WeatherDisplay:10.37,2013-05-03 21:32:00,
2013-05-03 16:35:00,44.0,31.0,30.32,North,360,12.7,20.7,60,0.00,CLR,,0.00,WeatherDisplay:10.37,2013-05-03 21:35:00,
2013-05-03 16:36:00,45.0,31.5,30.32,NNE,22,11.9,16.0,59,0.00,CLR,,0.00,WeatherDisplay:10.37,2013-05-03 21:36:00,
2013-05-03 16:37:00,45.0,31.1,30.32,North,360,13.8,19.6,58,0.00,CLR,,0.00,WeatherDisplay:10.37,2013-05-03 21:37:00,
2013-05-03 16:38:00,45.0,31.1,30.32,NNW,337,17.5,24.2,58,0.00,CLR,,0.00,WeatherDisplay:10.37,2013-05-03 21:38:00,
2013-05-03 16:41:00,45.0,31.1,30.32,NNW,337,12.6,18.4,58,0.00,CLR,,0.00,WeatherDisplay:10.37,2013-05-03 21:41:00,
2013-05-03 16:42:00,45.0,31.9,30.32,North,360,13.9,19.6,60,0.00,CLR,,0.00,WeatherDisplay:10.37,2013-05-03 21:42:00,
2013-05-03 16:43:00,45.0,31.9,30.32,North,360,10.4,19.0,60,0.00,CLR,,0.00,WeatherDisplay:10.37,2013-05-03 21:43:00,
2013-05-03 16:46:00,45.0,31.1,30.31,NNE,22,15.9,23.0,58,0.00,CLR,,0.00,WeatherDisplay:10.37,2013-05-03 21:46:00,
2013-05-03 16:47:00,45.0,31.1,30.31,NNE,22,15.0,18.4,58,0.00,CLR,,0.00,WeatherDisplay:10.37,2013-05-03 21:47:00,
2013-05-03 16:48:00,45.0,30.7,30.31,North,360,14.6,24.2,57,0.00,CLR,,0.00,WeatherDisplay:10.37,2013-05-03 21:48:00,
2013-05-03 16:49:00,45.0,31.1,30.31,NNE,22,14.5,19.6,58,0.00,CLR,,0.00,WeatherDisplay:10.37,2013-05-03 21:49:00,
2013-05-03 16:51:00,45.0,31.5,30.31,NNE,22,10.3,15.0,59,0.00,CLR,,0.00,WeatherDisplay:10.37,2013-05-03 21:51:00,
2013-05-03 16:52:00,45.0,31.5,30.31,NNE,22,10.4,16.1,59,0.00,CLR,,0.00,WeatherDisplay:10.37,2013-05-03 21:52:00,
2013-05-03 16:53:00,45.0,31.1,30.31,North,360,15.2,19.6,58,0.00,CLR,,0.00,WeatherDisplay:10.37,2013-05-03 21:53:00,
2013-05-03 16:54:00,45.0,31.9,30.31,North,360,11.5,19.6,60,0.00,CLR,,0.00,WeatherDisplay:10.37,2013-05-03 21:54:00,
2013-05-03 16:57:00,45.0,31.9,30.31,North,360,10.3,18.4,60,0.00,CLR,,0.00,WeatherDisplay:10.37,2013-05-03 21:57:00,
2013-05-03 16:58:00,45.0,31.5,30.31,North,360,10.3,13.8,59,0.00,CLR,,0.00,WeatherDisplay:10.37,2013-05-03 21:58:00,
2013-05-03 16:59:00,45.0,31.1,30.31,NNE,22,16.1,19.6,58,0.00,CLR,,0.00,WeatherDisplay:10.37,2013-05-03 21:59:00,
2013-05-03 17:02:00,45.0,31.9,30.31,NNE,22,16.7,24.2,60,0.00,CLR,,0.00,WeatherDisplay:10.37,2013-05-03 22:02:00,
2013-05-03 17:03:00,45.0,31.5,30.31,NNW,337,11.7,18.4,59,0.00,CLR,,0.00,WeatherDisplay:10.37,2013-05-03 22:03:00,
2013-05-03 17:04:00,45.0,31.5,30.31,NNE,22,15.5,19.6,59,0.00,CLR,,0.00,WeatherDisplay:10.37,2013-05-03 22:04:00,
2013-05-03 17:07:00,45.0,31.1,30.31,NNW,337,15.5,18.4,58,0.00,CLR,,0.00,WeatherDisplay:10.37,2013-05-03 22:07:00,
2013-05-03 17:09:00,45.0,31.5,30.31,North,360,14.1,17.3,59,0.00,CLR,,0.00,WeatherDisplay:10.37,2013-05-03 22:09:00,
2013-05-03 17:12:00,45.0,31.1,30.31,NNE,22,15.9,19.6,58,0.00,CLR,,0.00,WeatherDisplay:10.37,2013-05-03 22:12:00,
2013-05-03 17:13:00,45.0,31.1,30.31,NNE,22,16.2,19.6,58,0.00,CLR,,0.00,WeatherDisplay:10.37,2013-05-03 22:13:00,
2013-05-03 17:14:00,45.0,31.1,30.31,North,360,16.1,19.6,58,0.00,CLR,,0.00,WeatherDisplay:10.37,2013-05-03 22:14:00,
2013-05-03 17:15:00,45.0,31.1,30.31,NNE,22,13.7,18.4,58,0.00,CLR,,0.00,WeatherDisplay:10.37,2013-05-03 22:15:00,
2013-05-03 17:18:00,45.0,31.1,30.30,North,360,13.8,23.0,58,0.00,CLR,,0.00,WeatherDisplay:10.37,2013-05-03 22:18:00,
2013-05-03 17:19:00,45.0,31.1,30.30,NNW,337,15.1,20.7,58,0.00,CLR,,0.00,WeatherDisplay:10.37,2013-05-03 22:19:00,
2013-05-03 17:20:00,45.0,30.7,30.30,NNE,22,13.8,19.6,57,0.00,CLR,,0.00,WeatherDisplay:10.37,2013-05-03 22:20:00,
2013-05-03 17:23:00,45.0,31.1,30.30,NNE,22,10.8,16.1,58,0.00,CLR,,0.00,WeatherDisplay:10.37,2013-05-03 22:23:00,
2013-05-03 17:24:00,45.0,31.1,30.30,North,360,15.0,18.4,58,0.00,CLR,,0.00,WeatherDisplay:10.37,2013-05-03 22:24:00,
2013-05-03 17:25:00,45.0,31.1,30.30,NNE,22,15.1,20.7,58,0.00,CLR,,0.00,WeatherDisplay:10.37,2013-05-03 22:25:00,
2013-05-03 17:28:00,45.0,31.1,30.30,NNE,22,16.5,20.7,58,0.00,CLR,,0.00,WeatherDisplay:10.37,2013-05-03 22:28:00,
2013-05-03 17:29:00,45.0,31.1,30.30,NNE,22,14.0,20.7,58,0.00,CLR,,0.00,WeatherDisplay:10.37,2013-05-03 22:29:00,
2013-05-03 17:30:00,45.0,31.1,30.30,NNE,22,13.5,20.7,58,0.00,CLR,,0.00,WeatherDisplay:10.37,2013-05-03 22:30:00,
2013-05-03 17:33:00,45.0,31.9,30.30,NNW,337,12.0,19.6,60,0.00,CLR,,0.00,WeatherDisplay:10.37,2013-05-03 22:33:00,
2013-05-03 17:34:00,45.0,31.1,30.30,NNW,337,13.7,19.6,58,0.00,CLR,,0.00,WeatherDisplay:10.37,2013-05-03 22:34:00,
2013-05-03 17:35:00,45.0,31.1,30.30,NNE,22,14.0,18.4,58,0.00,CLR,,0.00,WeatherDisplay:10.37,2013-05-03 22:35:00,
2013-05-03 17:36:00,45.0,31.1,30.30,NNE,22,13.1,18.4,58,0.00,CLR,,0.00,WeatherDisplay:10.37,2013-05-03 22:36:00,
2013-05-03 17:38:00,45.0,31.1,30.30,NNW,337,13.6,20.0,58,0.00,CLR,,0.00,WeatherDisplay:10.37,2013-05-03 22:38:00,
2013-05-03 17:39:00,45.0,30.7,30.30,NNE,22,15.2,19.6,57,0.00,CLR,,0.00,WeatherDisplay:10.37,2013-05-03 22:39:00,
2013-05-03 17:40:00,45.0,30.7,30.30,NNW,337,14.5,24.2,57,0.00,CLR,,0.00,WeatherDisplay:10.37,2013-05-03 22:40:00,
2013-05-03 17:42:00,45.0,31.5,30.30,NNE,22,9.6,23.0,59,0.00,CLR,,0.00,WeatherDisplay:10.37,2013-05-03 22:42:00,
2013-05-03 17:44:00,45.0,31.1,30.30,NNE,22,12.5,16.1,58,0.00,CLR,,0.00,WeatherDisplay:10.37,2013-05-03 22:44:00,
2013-05-03 17:45:00,45.0,31.1,30.30,NNE,22,12.3,18.4,58,0.00,CLR,,0.00,WeatherDisplay:10.37,2013-05-03 22:45:00,
2013-05-03 17:48:00,45.0,30.7,30.30,NNE,22,14.7,21.9,57,0.00,CLR,,0.00,WeatherDisplay:10.37,2013-05-03 22:48:00,
2013-05-03 17:49:00,45.0,30.7,30.30,North,360,17.5,23.0,57,0.00,CLR,,0.00,WeatherDisplay:10.37,2013-05-03 22:49:00,
2013-05-03 17:50:00,45.0,30.7,30.30,NNE,22,14.6,19.6,57,0.00,CLR,,0.00,WeatherDisplay:10.37,2013-05-03 22:50:00,
2013-05-03 17:51:00,45.0,30.7,30.30,NNE,22,13.3,19.6,57,0.00,CLR,,0.00,WeatherDisplay:10.37,2013-05-03 22:51:00,
2013-05-03 17:53:00,45.0,30.7,30.30,NNE,22,14.1,19.6,57,0.00,CLR,,0.00,WeatherDisplay:10.37,2013-05-03 22:53:00,
2013-05-03 17:54:00,45.0,30.2,30.30,North,360,15.2,19.6,56,0.00,CLR,,0.00,WeatherDisplay:10.37,2013-05-03 22:54:00,
2013-05-03 17:55:00,45.0,30.7,30.30,NNE,22,15.4,23.0,57,0.00,CLR,,0.00,WeatherDisplay:10.37,2013-05-03 22:55:00,
2013-05-03 17:56:00,45.0,30.7,30.29,NNE,22,13.5,19.6,57,0.00,CLR,,0.00,WeatherDisplay:10.37,2013-05-03 22:56:00,
2013-05-03 17:58:00,45.0,30.7,30.29,NNE,22,12.7,19.6,57,0.00,CLR,,0.00,WeatherDisplay:10.37,2013-05-03 22:58:00,
2013-05-03 17:59:00,45.0,31.1,30.29,NNE,22,11.5,13.8,58,0.00,CLR,,0.00,WeatherDisplay:10.37,2013-05-03 22:59:00,
2013-05-03 18:00:00,45.0,30.7,30.29,NNE,22,11.7,18.0,57,0.00,CLR,,0.00,WeatherDisplay:10.37,2013-05-03 23:00:00,
2013-05-03 18:01:00,45.0,30.7,30.29,NNE,22,12.7,18.4,57,0.00,CLR,,0.00,WeatherDisplay:10.37,2013-05-03 23:01:00,
2013-05-03 18:03:00,46.0,31.6,30.29,NNW,337,12.4,18.4,57,0.00,CLR,,0.00,WeatherDisplay:10.37,2013-05-03 23:03:00,
2013-05-03 18:04:00,46.0,31.6,30.29,North,360,12.9,22.0,57,0.00,CLR,,0.00,WeatherDisplay:10.37,2013-05-03 23:04:00,
2013-05-03 18:05:00,46.0,30.7,30.29,North,360,15.9,21.9,55,0.00,CLR,,0.00,WeatherDisplay:10.37,2013-05-03 23:05:00,
2013-05-03 18:06:00,46.0,30.3,30.29,NNE,22,14.9,19.6,54,0.00,CLR,,0.00,WeatherDisplay:10.37,2013-05-03 23:06:00,
2013-05-03 18:08:00,46.0,30.3,30.29,NNW,337,15.8,19.6,54,0.00,CLR,,0.00,WeatherDisplay:10.37,2013-05-03 23:08:00,
2013-05-03 18:10:00,45.0,28.9,30.29,NNW,337,16.0,24.2,53,0.00,CLR,,0.00,WeatherDisplay:10.37,2013-05-03 23:10:00,
2013-05-03 18:11:00,45.0,29.8,30.29,NNW,337,19.2,23.0,55,0.00,CLR,,0.00,WeatherDisplay:10.37,2013-05-03 23:11:00,
2013-05-03 18:14:00,46.0,30.3,30.29,North,360,13.2,18.4,54,0.00,CLR,,0.00,WeatherDisplay:10.37,2013-05-03 23:14:00,
2013-05-03 18:15:00,46.0,30.7,30.29,North,360,14.7,17.3,55,0.00,CLR,,0.00,WeatherDisplay:10.37,2013-05-03 23:15:00,
2013-05-03 18:16:00,46.0,30.7,30.29,NNW,337,14.3,18.4,55,0.00,CLR,,0.00,WeatherDisplay:10.37,2013-05-03 23:16:00,
2013-05-03 18:19:00,46.0,30.7,30.29,North,360,12.4,19.6,55,0.00,CLR,,0.00,WeatherDisplay:10.37,2013-05-03 23:19:00,
2013-05-03 18:21:00,46.0,30.7,30.29,NNE,22,9.4,15.0,55,0.00,CLR,,0.00,WeatherDisplay:10.37,2013-05-03 23:21:00,
2013-05-03 18:22:00,46.0,31.6,30.29,NNE,22,6.2,15.0,57,0.00,CLR,,0.00,WeatherDisplay:10.37,2013-05-03 23:22:00,
2013-05-03 18:24:00,46.0,30.7,30.29,NNE,22,11.7,17.3,55,0.00,CLR,,0.00,WeatherDisplay:10.37,2013-05-03 23:24:00,
2013-05-03 18:26:00,46.0,30.7,30.29,NNE,22,12.0,16.1,55,0.00,CLR,,0.00,WeatherDisplay:10.37,2013-05-03 23:26:00,
2013-05-03 18:27:00,46.0,29.8,30.29,NNE,22,12.7,17.3,53,0.00,CLR,,0.00,WeatherDisplay:10.37,2013-05-03 23:27:00,
2013-05-03 18:29:00,46.0,30.3,30.29,NNW,337,10.4,19.6,54,0.00,CLR,,0.00,WeatherDisplay:10.37,2013-05-03 23:29:00,
2013-05-03 18:31:00,46.0,29.8,30.29,NNE,22,7.8,20.7,53,0.00,CLR,,0.00,WeatherDisplay:10.37,2013-05-03 23:31:00,
2013-05-03 18:32:00,46.0,29.8,30.29,NNE,22,11.0,17.3,53,0.00,CLR,,0.00,WeatherDisplay:10.37,2013-05-03 23:32:00,
2013-05-03 18:34:00,46.0,29.3,30.29,North,360,13.0,18.4,52,0.00,CLR,,0.00,WeatherDisplay:10.37,2013-05-03 23:34:00,
2013-05-03 18:36:00,46.0,29.3,30.29,NNE,22,12.2,19.6,52,0.00,CLR,,0.00,WeatherDisplay:10.37,2013-05-03 23:36:00,
2013-05-03 18:37:00,46.0,29.3,30.29,NNW,337,13.1,18.4,52,0.00,CLR,,0.00,WeatherDisplay:10.37,2013-05-03 23:37:00,
2013-05-03 18:39:00,46.0,29.8,30.29,NNW,337,13.9,19.6,53,0.00,CLR,,0.00,WeatherDisplay:10.37,2013-05-03 23:39:00,
2013-05-03 18:41:00,46.0,29.3,30.29,NNW,337,16.3,23.0,52,0.00,CLR,,0.00,WeatherDisplay:10.37,2013-05-03 23:41:00,
2013-05-03 18:42:00,45.0,28.4,30.29,North,360,17.3,23.0,52,0.00,CLR,,0.00,WeatherDisplay:10.37,2013-05-03 23:42:00,
2013-05-03 18:43:00,45.0,28.9,30.29,NNE,22,13.5,20.7,53,0.00,CLR,,0.00,WeatherDisplay:10.37,2013-05-03 23:43:00,
2013-05-03 18:44:00,45.0,28.9,30.29,North,360,11.0,17.3,53,0.00,CLR,,0.00,WeatherDisplay:10.37,2013-05-03 23:44:00,
2013-05-03 18:46:00,46.0,29.8,30.29,NNW,337,12.9,23.0,53,0.00,CLR,,0.00,WeatherDisplay:10.37,2013-05-03 23:46:00,
2013-05-03 18:47:00,46.0,29.8,30.29,North,360,12.5,23.0,53,0.00,CLR,,0.00,WeatherDisplay:10.37,2013-05-03 23:47:00,
2013-05-03 18:48:00,45.0,29.3,30.29,North,360,12.8,18.4,54,0.00,CLR,,0.00,WeatherDisplay:10.37,2013-05-03 23:48:00,
2013-05-03 18:50:00,45.0,27.9,30.29,North,360,19.0,26.5,51,0.00,CLR,,0.00,WeatherDisplay:10.37,2013-05-03 23:50:00,
2013-05-03 18:52:00,45.0,28.4,30.29,North,360,13.8,22.0,52,0.00,CLR,,0.00,WeatherDisplay:10.37,2013-05-03 23:52:00,
2013-05-03 18:53:00,46.0,29.8,30.29,NNW,337,13.5,21.9,53,0.00,CLR,,0.00,WeatherDisplay:10.37,2013-05-03 23:53:00,
2013-05-03 18:54:00,46.0,29.8,30.29,North,360,11.0,19.6,53,0.00,CLR,,0.00,WeatherDisplay:10.37,2013-05-03 23:54:00,
2013-05-03 18:55:00,46.0,29.8,30.29,North,360,9.6,16.1,53,0.00,CLR,,0.00,WeatherDisplay:10.37,2013-05-03 23:55:00,
2013-05-03 18:57:00,46.0,29.8,30.28,NNW,337,9.7,15.0,53,0.00,CLR,,0.00,WeatherDisplay:10.37,2013-05-03 23:57:00,
2013-05-03 18:58:00,46.0,29.8,30.28,NNW,337,13.3,17.3,53,0.00,CLR,,0.00,WeatherDisplay:10.37,2013-05-03 23:58:00,
2013-05-03 18:59:00,46.0,29.8,30.28,North,360,8.8,16.1,53,0.00,CLR,,0.00,WeatherDisplay:10.37,2013-05-03 23:59:00,
2013-05-03 19:00:00,46.0,29.8,30.28,North,360,10.0,13.8,53,0.00,CLR,,0.00,WeatherDisplay:10.37,2013-05-04 00:00:00,
2013-05-03 19:02:00,46.0,30.3,30.28,NNW,337,10.3,13.8,54,0.00,CLR,,0.00,WeatherDisplay:10.37,2013-05-04 00:02:00,
2013-05-03 19:04:00,46.0,30.3,30.28,North,360,12.4,17.3,54,0.00,CLR,,0.00,WeatherDisplay:10.37,2013-05-04 00:04:00,
2013-05-03 19:05:00,46.0,29.8,30.28,NNW,337,5.8,13.8,53,0.00,CLR,,0.00,WeatherDisplay:10.37,2013-05-04 00:05:00,
2013-05-03 19:07:00,46.0,30.3,30.27,NNE,22,12.1,18.4,54,0.00,CLR,,0.00,WeatherDisplay:10.37,2013-05-04 00:07:00,
2013-05-03 19:09:00,46.0,29.3,30.27,NNW,337,12.5,21.0,52,0.00,CLR,,0.00,WeatherDisplay:10.37,2013-05-04 00:09:00,
2013-05-03 19:10:00,46.0,29.3,30.27,North,360,17.9,21.9,52,0.00,CLR,,0.00,WeatherDisplay:10.37,2013-05-04 00:10:00,
2013-05-03 19:11:00,46.0,29.3,30.27,NNW,337,16.3,23.0,52,0.00,CLR,,0.00,WeatherDisplay:10.37,2013-05-04 00:11:00,
2013-05-03 19:13:00,46.0,29.3,30.27,NNE,22,7.5,20.7,52,0.00,CLR,,0.00,WeatherDisplay:10.37,2013-05-04 00:13:00,
2013-05-03 19:15:00,46.0,29.3,30.27,NNW,337,11.2,16.0,52,0.00,CLR,,0.00,WeatherDisplay:10.37,2013-05-04 00:15:00,
2013-05-03 19:16:00,46.0,29.3,30.27,North,360,12.3,16.1,52,0.00,CLR,,0.00,WeatherDisplay:10.37,2013-05-04 00:16:00,
2013-05-03 19:18:00,46.0,29.3,30.27,NNE,22,14.0,19.6,52,0.00,CLR,,0.00,WeatherDisplay:10.37,2013-05-04 00:18:00,
2013-05-03 19:20:00,46.0,29.3,30.27,NNE,22,12.8,18.0,52,0.00,CLR,,0.00,WeatherDisplay:10.37,2013-05-04 00:20:00,
2013-05-03 19:21:00,46.0,29.8,30.27,North,360,12.8,19.6,53,0.00,CLR,,0.00,WeatherDisplay:10.37,2013-05-04 00:21:00,
2013-05-03 19:22:00,46.0,29.3,30.27,NNW,337,13.1,18.0,52,0.00,CLR,,0.00,WeatherDisplay:10.37,2013-05-04 00:22:00,
2013-05-03 19:23:00,46.0,29.8,30.27,NNE,22,8.8,20.7,53,0.00,CLR,,0.00,WeatherDisplay:10.37,2013-05-04 00:23:00,
2013-05-03 19:24:00,46.0,30.3,30.27,NNE,22,8.1,11.5,54,0.00,CLR,,0.00,WeatherDisplay:10.37,2013-05-04 00:24:00,
2013-05-03 19:25:00,46.0,29.8,30.27,NNW,337,10.0,11.5,53,0.00,CLR,,0.00,WeatherDisplay:10.37,2013-05-04 00:25:00,
2013-05-03 19:26:00,46.0,29.8,30.27,WSW,247,7.9,13.8,53,0.00,CLR,,0.00,WeatherDisplay:10.37,2013-05-04 00:26:00,
2013-05-03 19:27:00,46.0,29.3,30.27,NNW,337,13.3,17.3,52,0.00,CLR,,0.00,WeatherDisplay:10.37,2013-05-04 00:27:00,
2013-05-03 19:29:00,46.0,29.8,30.27,NNE,22,14.5,20.7,53,0.00,CLR,,0.00,WeatherDisplay:10.37,2013-05-04 00:29:00,
2013-05-03 19:30:00,46.0,30.3,30.27,NNE,22,12.3,25.3,54,0.00,CLR,,0.00,WeatherDisplay:10.37,2013-05-04 00:30:00,
2013-05-03 19:31:00,46.0,30.3,30.27,NNE,22,14.2,17.0,54,0.00,CLR,,0.00,WeatherDisplay:10.37,2013-05-04 00:31:00,
2013-05-03 19:32:00,45.0,29.8,30.27,NNE,22,16.9,19.6,55,0.00,CLR,,0.00,WeatherDisplay:10.37,2013-05-04 00:32:00,
2013-05-03 19:34:00,45.0,31.1,30.27,NNE,22,18.1,24.2,58,0.00,CLR,,0.00,WeatherDisplay:10.37,2013-05-04 00:34:00,
2013-05-03 19:35:00,45.0,31.1,30.27,NE,45,14.0,23.0,58,0.00,CLR,,0.00,WeatherDisplay:10.37,2013-05-04 00:35:00,
2013-05-03 19:36:00,45.0,31.1,30.28,NE,45,17.2,21.0,58,0.00,CLR,,0.00,WeatherDisplay:10.37,2013-05-04 00:36:00,
2013-05-03 19:38:00,45.0,31.9,30.28,NNE,22,14.9,25.3,60,0.00,CLR,,0.00,WeatherDisplay:10.37,2013-05-04 00:38:00,
2013-05-03 19:39:00,44.0,31.4,30.28,NE,45,13.3,19.6,61,0.00,CLR,,0.00,WeatherDisplay:10.37,2013-05-04 00:39:00,
2013-05-03 19:40:00,44.0,31.4,30.28,NNE,22,12.8,16.1,61,0.00,CLR,,0.00,WeatherDisplay:10.37,2013-05-04 00:40:00,
2013-05-03 19:42:00,44.0,31.4,30.28,NE,45,12.5,17.0,61,0.00,CLR,,0.00,WeatherDisplay:10.37,2013-05-04 00:42:00,
2013-05-03 19:43:00,44.0,31.8,30.28,NNE,22,11.1,18.4,62,0.00,CLR,,0.00,WeatherDisplay:10.37,2013-05-04 00:43:00,
2013-05-03 19:44:00,44.0,32.2,30.28,NE,45,8.0,13.8,63,0.00,CLR,,0.00,WeatherDisplay:10.37,2013-05-04 00:44:00,
2013-05-03 19:45:00,44.0,32.2,30.28,North,360,10.0,12.0,63,0.00,CLR,,0.00,WeatherDisplay:10.37,2013-05-04 00:45:00,
2013-05-03 19:47:00,44.0,31.8,30.28,NE,45,13.8,19.6,62,0.00,CLR,,0.00,WeatherDisplay:10.37,2013-05-04 00:47:00,
2013-05-03 19:49:00,44.0,31.8,30.28,NNE,22,14.9,20.7,62,0.00,CLR,,0.00,WeatherDisplay:10.37,2013-05-04 00:49:00,
2013-05-03 19:50:00,44.0,31.8,30.28,NE,45,13.2,16.1,62,0.00,CLR,,0.00,WeatherDisplay:10.37,2013-05-04 00:50:00,
2013-05-03 19:53:00,43.0,30.5,30.28,NNE,22,12.1,18.4,61,0.00,CLR,,0.00,WeatherDisplay:10.37,2013-05-04 00:53:00,
2013-05-03 19:54:00,43.0,30.9,30.28,NNE,22,8.1,11.5,62,0.00,CLR,,0.00,WeatherDisplay:10.37,2013-05-04 00:54:00,
2013-05-03 19:55:00,43.0,30.5,30.28,NE,45,13.8,13.8,61,0.00,CLR,,0.00,WeatherDisplay:10.37,2013-05-04 00:55:00,
2013-05-03 19:58:00,43.0,30.9,30.29,NNE,22,11.4,15.0,62,0.00,CLR,,0.00,WeatherDisplay:10.37,2013-05-04 00:58:00,
2013-05-03 19:59:00,43.0,30.9,30.29,NNE,22,10.8,15.0,62,0.00,CLR,,0.00,WeatherDisplay:10.37,2013-05-04 00:59:00,
2013-05-03 20:00:00,43.0,30.9,30.29,NNE,22,12.0,15.0,62,0.00,CLR,,0.00,WeatherDisplay:10.37,2013-05-04 01:00:00,
2013-05-03 20:03:00,43.0,30.9,30.29,NNE,22,10.4,16.1,62,0.00,CLR,,0.00,WeatherDisplay:10.37,2013-05-04 01:03:00,
2013-05-03 20:04:00,43.0,30.9,30.29,NNE,22,9.3,17.3,62,0.00,CLR,,0.00,WeatherDisplay:10.37,2013-05-04 01:04:00,
2013-05-03 20:05:00,43.0,30.9,30.29,NNE,22,9.6,13.8,62,0.00,CLR,,0.00,WeatherDisplay:10.37,2013-05-04 01:05:00,
2013-05-03 20:06:00,43.0,30.9,30.29,North,360,9.9,13.8,62,0.00,CLR,,0.00,WeatherDisplay:10.37,2013-05-04 01:06:00,
2013-05-03 20:08:00,43.0,30.9,30.29,NNE,22,11.4,13.8,62,0.00,CLR,,0.00,WeatherDisplay:10.37,2013-05-04 01:08:00,
2013-05-03 20:10:00,43.0,31.3,30.29,NNE,22,10.8,17.3,63,0.00,CLR,,0.00,WeatherDisplay:10.37,2013-05-04 01:10:00,
2013-05-03 20:11:00,43.0,30.9,30.29,NNE,22,9.2,15.0,62,0.00,CLR,,0.00,WeatherDisplay:10.37,2013-05-04 01:11:00,
2013-05-03 20:14:00,43.0,30.9,30.29,NNE,22,10.3,13.8,62,0.00,CLR,,0.00,WeatherDisplay:10.37,2013-05-04 01:14:00,
2013-05-03 20:15:00,43.0,30.9,30.29,NNE,22,11.4,16.0,62,0.00,CLR,,0.00,WeatherDisplay:10.37,2013-05-04 01:15:00,
2013-05-03 20:16:00,43.0,30.5,30.30,NNW,337,11.0,17.3,61,0.00,CLR,,0.00,WeatherDisplay:10.37,2013-05-04 01:16:00,
2013-05-03 20:17:00,43.0,30.9,30.30,North,360,10.5,15.0,62,0.00,CLR,,0.00,WeatherDisplay:10.37,2013-05-04 01:17:00,
2013-05-03 20:19:00,43.0,30.9,30.30,NNE,22,6.7,10.4,62,0.00,CLR,,0.00,WeatherDisplay:10.37,2013-05-04 01:19:00,
2013-05-03 20:20:00,43.0,30.9,30.30,NNE,22,10.5,11.5,62,0.00,CLR,,0.00,WeatherDisplay:10.37,2013-05-04 01:20:00,
2013-05-03 20:21:00,43.0,30.9,30.30,NNE,22,12.3,19.6,62,0.00,CLR,,0.00,WeatherDisplay:10.37,2013-05-04 01:21:00,
2013-05-03 20:22:00,43.0,30.9,30.30,North,360,9.0,15.0,62,0.00,CLR,,0.00,WeatherDisplay:10.37,2013-05-04 01:22:00,
2013-05-03 20:24:00,43.0,30.9,30.30,NNE,22,9.4,16.1,62,0.00,CLR,,0.00,WeatherDisplay:10.37,2013-05-04 01:24:00,
2013-05-03 20:25:00,43.0,30.9,30.30,NNE,22,11.8,15.0,62,0.00,CLR,,0.00,WeatherDisplay:10.37,2013-05-04 01:25:00,
2013-05-03 20:26:00,43.0,30.9,30.30,NNE,22,9.2,16.1,62,0.00,CLR,,0.00,WeatherDisplay:10.37,2013-05-04 01:26:00,
2013-05-03 20:27:00,43.0,30.9,30.30,NNE,22,8.4,12.7,62,0.00,CLR,,0.00,WeatherDisplay:10.37,2013-05-04 01:27:00,
2013-05-03 20:29:00,43.0,30.9,30.30,NNE,22,8.3,12.7,62,0.00,CLR,,0.00,WeatherDisplay:10.37,2013-05-04 01:29:00,
2013-05-03 20:30:00,43.0,31.3,30.30,NNE,22,9.4,13.8,63,0.00,CLR,,0.00,WeatherDisplay:10.37,2013-05-04 01:30:00,
2013-05-03 20:31:00,43.0,31.6,30.30,NNE,22,7.8,10.4,64,0.00,CLR,,0.00,WeatherDisplay:10.37,2013-05-04 01:31:00,
2013-05-03 20:33:00,42.0,30.3,30.30,North,360,7.8,10.4,63,0.00,CLR,,0.00,WeatherDisplay:10.37,2013-05-04 01:33:00,
2013-05-03 20:34:00,42.0,30.3,30.30,NNE,22,9.0,11.5,63,0.00,CLR,,0.00,WeatherDisplay:10.37,2013-05-04 01:34:00,
2013-05-03 20:35:00,42.0,30.3,30.30,NNE,22,9.6,11.0,63,0.00,CLR,,0.00,WeatherDisplay:10.37,2013-05-04 01:35:00,
2013-05-03 20:36:00,42.0,30.3,30.30,NNE,22,8.4,13.8,63,0.00,CLR,,0.00,WeatherDisplay:10.37,2013-05-04 01:36:00,
2013-05-03 20:37:00,42.0,30.3,30.30,NNE,22,8.2,10.4,63,0.00,CLR,,0.00,WeatherDisplay:10.37,2013-05-04 01:37:00,
2013-05-03 20:38:00,42.0,30.3,30.30,NNE,22,10.7,18.0,63,0.00,CLR,,0.00,WeatherDisplay:10.37,2013-05-04 01:38:00,
2013-05-03 20:39:00,42.0,30.3,30.30,NNE,22,9.1,18.4,63,0.00,CLR,,0.00,WeatherDisplay:10.37,2013-05-04 01:39:00,
2013-05-03 20:41:00,42.0,30.3,30.30,NNE,22,5.7,12.7,63,0.00,CLR,,0.00,WeatherDisplay:10.37,2013-05-04 01:41:00,
2013-05-03 20:42:00,42.0,30.3,30.30,NNE,22,10.1,17.3,63,0.00,CLR,,0.00,WeatherDisplay:10.37,2013-05-04 01:42:00,
2013-05-03 20:43:00,42.0,30.3,30.30,NNE,22,10.8,12.7,63,0.00,CLR,,0.00,WeatherDisplay:10.37,2013-05-04 01:43:00,
2013-05-03 20:44:00,42.0,30.3,30.30,NE,45,7.0,13.8,63,0.00,CLR,,0.00,WeatherDisplay:10.37,2013-05-04 01:44:00,
2013-05-03 20:46:00,42.0,29.5,30.30,NNE,22,11.9,17.0,61,0.00,CLR,,0.00,WeatherDisplay:10.37,2013-05-04 01:46:00,
2013-05-03 20:47:00,42.0,29.5,30.30,NNE,22,13.4,19.6,61,0.00,CLR,,0.00,WeatherDisplay:10.37,2013-05-04 01:47:00,
2013-05-03 20:48:00,42.0,29.5,30.30,NNE,22,9.4,14.0,61,0.00,CLR,,0.00,WeatherDisplay:10.37,2013-05-04 01:48:00,
2013-05-03 20:49:00,42.0,29.5,30.30,NNE,22,9.8,13.8,61,0.00,CLR,,0.00,WeatherDisplay:10.37,2013-05-04 01:49:00,
2013-05-03 20:51:00,42.0,29.5,30.30,North,360,13.0,19.6,61,0.00,CLR,,0.00,WeatherDisplay:10.37,2013-05-04 01:51:00,
2013-05-03 20:52:00,42.0,29.5,30.30,North,360,12.2,19.6,61,0.00,CLR,,0.00,WeatherDisplay:10.37,2013-05-04 01:52:00,
2013-05-03 20:53:00,42.0,29.5,30.30,NNE,22,8.7,16.1,61,0.00,CLR,,0.00,WeatherDisplay:10.37,2013-05-04 01:53:00,
2013-05-03 20:54:00,42.0,29.5,30.30,NNE,22,10.3,17.3,61,0.00,CLR,,0.00,WeatherDisplay:10.37,2013-05-04 01:54:00,
2013-05-03 20:56:00,42.0,29.1,30.31,NNE,22,9.3,15.0,60,0.00,CLR,,0.00,WeatherDisplay:10.37,2013-05-04 01:56:00,
2013-05-03 20:57:00,42.0,29.5,30.31,NNW,337,10.1,15.0,61,0.00,CLR,,0.00,WeatherDisplay:10.37,2013-05-04 01:57:00,
2013-05-03 20:58:00,42.0,29.5,30.31,North,360,12.3,13.8,61,0.00,CLR,,0.00,WeatherDisplay:10.37,2013-05-04 01:58:00,
2013-05-03 20:59:00,42.0,29.1,30.31,NNE,22,13.2,16.1,60,0.00,CLR,,0.00,WeatherDisplay:10.37,2013-05-04 01:59:00,
2013-05-03 21:01:00,42.0,29.5,30.31,NNW,337,10.4,12.7,61,0.00,CLR,,0.00,WeatherDisplay:10.37,2013-05-04 02:01:00,
2013-05-03 21:02:00,42.0,29.1,30.31,NNE,22,7.0,17.3,60,0.00,CLR,,0.00,WeatherDisplay:10.37,2013-05-04 02:02:00,
2013-05-03 21:04:00,42.0,29.1,30.31,NE,45,11.9,19.6,60,0.00,CLR,,0.00,WeatherDisplay:10.37,2013-05-04 02:04:00,
2013-05-03 21:07:00,42.0,28.7,30.30,North,360,12.4,17.3,59,0.00,CLR,,0.00,WeatherDisplay:10.37,2013-05-04 02:07:00,
2013-05-03 21:09:00,42.0,28.3,30.30,NNE,22,16.5,23.0,58,0.00,CLR,,0.00,WeatherDisplay:10.37,2013-05-04 02:09:00,
2013-05-03 21:12:00,42.0,28.7,30.30,North,360,13.7,19.6,59,0.00,CLR,,0.00,WeatherDisplay:10.37,2013-05-04 02:12:00,
2013-05-03 21:13:00,42.0,28.7,30.30,NNE,22,13.0,17.3,59,0.00,CLR,,0.00,WeatherDisplay:10.37,2013-05-04 02:13:00,
2013-05-03 21:14:00,42.0,28.7,30.30,NE,45,8.5,15.0,59,0.00,CLR,,0.00,WeatherDisplay:10.37,2013-05-04 02:14:00,
2013-05-03 21:17:00,42.0,28.7,30.29,North,360,16.1,23.0,59,0.00,CLR,,0.00,WeatherDisplay:10.37,2013-05-04 02:17:00,
2013-05-03 21:18:00,42.0,28.7,30.29,NNE,22,15.2,19.6,59,0.00,CLR,,0.00,WeatherDisplay:10.37,2013-05-04 02:18:00,
2013-05-03 21:19:00,42.0,28.7,30.29,NNE,22,12.2,17.3,59,0.00,CLR,,0.00,WeatherDisplay:10.37,2013-05-04 02:19:00,
2013-05-03 21:20:00,42.0,28.7,30.29,NNE,22,11.6,18.4,59,0.00,CLR,,0.00,WeatherDisplay:10.37,2013-05-04 02:20:00,
2013-05-03 21:22:00,42.0,28.7,30.29,NNE,22,10.3,20.0,59,0.00,CLR,,0.00,WeatherDisplay:10.37,2013-05-04 02:22:00,
2013-05-03 21:23:00,42.0,28.7,30.29,NNE,22,14.1,19.6,59,0.00,CLR,,0.00,WeatherDisplay:10.37,2013-05-04 02:23:00,
2013-05-03 21:24:00,42.0,29.1,30.29,NNE,22,9.4,17.3,60,0.00,CLR,,0.00,WeatherDisplay:10.37,2013-05-04 02:24:00,
2013-05-03 21:25:00,42.0,29.1,30.29,North,360,9.6,11.5,60,0.00,CLR,,0.00,WeatherDisplay:10.37,2013-05-04 02:25:00,
2013-05-03 21:27:00,42.0,28.7,30.30,NNE,22,13.6,19.6,59,0.00,CLR,,0.00,WeatherDisplay:10.37,2013-05-04 02:27:00,
2013-05-03 21:28:00,42.0,29.1,30.30,North,360,12.2,17.3,60,0.00,CLR,,0.00,WeatherDisplay:10.37,2013-05-04 02:28:00,
2013-05-03 21:30:00,42.0,29.1,30.30,ENE,67,9.7,18.4,60,0.00,CLR,,0.00,WeatherDisplay:10.37,2013-05-04 02:30:00,
2013-05-03 21:32:00,42.0,29.1,30.30,NNE,22,11.7,17.3,60,0.00,CLR,,0.00,WeatherDisplay:10.37,2013-05-04 02:32:00,
2013-05-03 21:33:00,41.0,28.2,30.30,NNE,22,11.4,17.3,60,0.00,CLR,,0.00,WeatherDisplay:10.37,2013-05-04 02:33:00,
2013-05-03 21:34:00,41.0,28.2,30.30,North,360,13.1,17.3,60,0.00,CLR,,0.00,WeatherDisplay:10.37,2013-05-04 02:34:00,
2013-05-03 21:36:00,41.0,28.2,30.30,NNE,22,11.5,18.4,60,0.00,CLR,,0.00,WeatherDisplay:10.37,2013-05-04 02:36:00,
2013-05-03 21:37:00,41.0,28.2,30.31,NNE,22,14.0,18.0,60,0.00,CLR,,0.00,WeatherDisplay:10.37,2013-05-04 02:37:00,
2013-05-03 21:38:00,41.0,28.2,30.31,North,360,12.0,19.6,60,0.00,CLR,,0.00,WeatherDisplay:10.37,2013-05-04 02:38:00,
2013-05-03 21:39:00,41.0,28.2,30.31,North,360,12.0,16.1,60,0.00,CLR,,0.00,WeatherDisplay:10.37,2013-05-04 02:39:00,
2013-05-03 21:41:00,41.0,28.6,30.31,North,360,9.5,15.0,61,0.00,CLR,,0.00,WeatherDisplay:10.37,2013-05-04 02:41:00,
2013-05-03 21:43:00,41.0,28.6,30.31,NNE,22,11.0,15.0,61,0.00,CLR,,0.00,WeatherDisplay:10.37,2013-05-04 02:43:00,
2013-05-03 21:44:00,41.0,28.6,30.31,NNE,22,11.6,17.3,61,0.00,CLR,,0.00,WeatherDisplay:10.37,2013-05-04 02:44:00,
2013-05-03 21:46:00,41.0,28.6,30.31,North,360,12.0,18.4,61,0.00,CLR,,0.00,WeatherDisplay:10.37,2013-05-04 02:46:00,
2013-05-03 21:48:00,41.0,29.0,30.31,NNE,22,9.5,11.0,62,0.00,CLR,,0.00,WeatherDisplay:10.37,2013-05-04 02:48:00,
2013-05-03 21:49:00,41.0,29.0,30.31,North,360,11.0,16.0,62,0.00,CLR,,0.00,WeatherDisplay:10.37,2013-05-04 02:49:00,
2013-05-03 21:51:00,41.0,29.0,30.31,North,360,14.0,19.6,62,0.00,CLR,,0.00,WeatherDisplay:10.37,2013-05-04 02:51:00,
2013-05-03 21:54:00,41.0,29.7,30.31,North,360,10.6,16.1,64,0.00,CLR,,0.00,WeatherDisplay:10.37,2013-05-04 02:54:00,
2013-05-03 21:55:00,41.0,29.7,30.31,NNE,22,9.8,13.8,64,0.00,CLR,,0.00,WeatherDisplay:10.37,2013-05-04 02:55:00,
2013-05-03 21:56:00,41.0,29.7,30.31,NNE,22,13.6,15.0,64,0.00,CLR,,0.00,WeatherDisplay:10.37,2013-05-04 02:56:00,
2013-05-03 21:57:00,41.0,29.7,30.31,NNE,22,14.5,25.3,64,0.00,CLR,,0.00,WeatherDisplay:10.37,2013-05-04 02:57:00,
2013-05-03 22:00:00,41.0,30.1,30.31,NNE,22,9.3,17.3,65,0.00,CLR,,0.00,WeatherDisplay:10.37,2013-05-04 03:00:00,
2013-05-03 22:01:00,41.0,30.5,30.31,NNE,22,9.7,13.8,66,0.00,CLR,,0.00,WeatherDisplay:10.37,2013-05-04 03:01:00,
2013-05-03 22:02:00,41.0,30.5,30.31,NNE,22,9.8,16.1,66,0.00,CLR,,0.00,WeatherDisplay:10.37,2013-05-04 03:02:00,
2013-05-03 22:05:00,41.0,31.2,30.31,NNE,22,12.7,19.6,68,0.00,CLR,,0.00,WeatherDisplay:10.37,2013-05-04 03:05:00,
2013-05-03 22:06:00,41.0,31.2,30.31,NNE,22,13.0,19.6,68,0.00,CLR,,0.00,WeatherDisplay:10.37,2013-05-04 03:06:00,
2013-05-03 22:07:00,41.0,31.2,30.30,NNE,22,11.4,18.0,68,0.00,CLR,,0.00,WeatherDisplay:10.37,2013-05-04 03:07:00,
2013-05-03 22:10:00,40.0,31.0,30.30,North,360,9.8,15.0,70,0.00,CLR,,0.00,WeatherDisplay:10.37,2013-05-04 03:10:00,
2013-05-03 22:11:00,40.0,31.0,30.30,NNE,22,9.3,12.0,70,0.00,CLR,,0.00,WeatherDisplay:10.37,2013-05-04 03:11:00,
2013-05-03 22:12:00,40.0,31.0,30.30,NNE,22,7.9,13.8,70,0.00,CLR,,0.00,WeatherDisplay:10.37,2013-05-04 03:12:00,
2013-05-03 22:15:00,40.0,31.4,30.30,North,360,10.1,12.7,71,0.00,CLR,,0.00,WeatherDisplay:10.37,2013-05-04 03:15:00,
2013-05-03 22:16:00,40.0,31.4,30.30,North,360,9.4,12.7,71,0.00,CLR,,0.00,WeatherDisplay:10.37,2013-05-04 03:16:00,
2013-05-03 22:17:00,40.0,31.4,30.30,North,360,9.6,13.0,71,0.00,CLR,,0.00,WeatherDisplay:10.37,2013-05-04 03:17:00,
2013-05-03 22:18:00,40.0,31.4,30.30,NNE,22,8.7,12.7,71,0.00,CLR,,0.00,WeatherDisplay:10.37,2013-05-04 03:18:00,
2013-05-03 22:20:00,40.0,31.7,30.30,NE,45,11.4,15.0,72,0.00,CLR,,0.00,WeatherDisplay:10.37,2013-05-04 03:20:00,
2013-05-03 22:21:00,40.0,32.0,30.30,NNW,337,12.0,19.6,73,0.00,CLR,,0.00,WeatherDisplay:10.37,2013-05-04 03:21:00,
2013-05-03 22:22:00,40.0,32.0,30.30,NNE,22,11.9,17.3,73,0.00,CLR,,0.00,WeatherDisplay:10.37,2013-05-04 03:22:00,
2013-05-03 22:23:00,40.0,32.0,30.30,NNE,22,14.6,20.7,73,0.00,CLR,,0.00,WeatherDisplay:10.37,2013-05-04 03:23:00,
2013-05-03 22:25:00,40.0,32.0,30.30,NNE,22,12.4,17.3,73,0.00,CLR,,0.00,WeatherDisplay:10.37,2013-05-04 03:25:00,
2013-05-03 22:26:00,40.0,32.0,30.30,NNE,22,13.1,18.0,73,0.00,CLR,,0.00,WeatherDisplay:10.37,2013-05-04 03:26:00,
2013-05-03 22:27:00,40.0,32.0,30.30,NNE,22,13.8,23.0,73,0.00,CLR,,0.00,WeatherDisplay:10.37,2013-05-04 03:27:00,
2013-05-03 22:28:00,40.0,32.0,30.30,North,360,12.6,24.2,73,0.00,CLR,,0.00,WeatherDisplay:10.37,2013-05-04 03:28:00,
2013-05-03 22:30:00,40.0,32.0,30.30,NNE,22,11.3,24.2,73,0.00,CLR,,0.00,WeatherDisplay:10.37,2013-05-04 03:30:00,
2013-05-03 22:31:00,40.0,32.0,30.30,North,360,11.6,21.0,73,0.00,CLR,,0.00,WeatherDisplay:10.37,2013-05-04 03:31:00,
2013-05-03 22:32:00,40.0,32.0,30.30,NNE,22,14.9,23.0,73,0.00,CLR,,0.00,WeatherDisplay:10.37,2013-05-04 03:32:00,
2013-05-03 22:33:00,40.0,32.0,30.30,North,360,19.6,26.0,73,0.00,CLR,,0.00,WeatherDisplay:10.37,2013-05-04 03:33:00,
2013-05-03 22:36:00,40.0,32.0,30.29,NNE,22,10.6,16.1,73,0.00,CLR,,0.00,WeatherDisplay:10.37,2013-05-04 03:36:00,
2013-05-03 22:37:00,40.0,32.0,30.29,NNE,22,17.9,26.5,73,0.00,CLR,,0.00,WeatherDisplay:10.37,2013-05-04 03:37:00,
2013-05-03 22:39:00,40.0,32.4,30.29,NNE,22,16.1,25.3,74,0.00,CLR,,0.00,WeatherDisplay:10.37,2013-05-04 03:39:00,
2013-05-03 22:41:00,40.0,32.4,30.29,NNE,22,12.9,19.6,74,0.00,CLR,,0.00,WeatherDisplay:10.37,2013-05-04 03:41:00,
2013-05-03 22:42:00,39.0,31.1,30.29,NNE,22,17.3,25.3,73,0.00,CLR,,0.00,WeatherDisplay:10.37,2013-05-04 03:42:00,
2013-05-03 22:44:00,39.0,31.4,30.29,North,360,15.4,19.6,74,0.00,CLR,,0.00,WeatherDisplay:10.37,2013-05-04 03:44:00,
2013-05-03 22:46:00,40.0,32.0,30.29,NNE,22,16.5,21.9,73,0.00,CLR,,0.00,WeatherDisplay:10.37,2013-05-04 03:46:00,
2013-05-03 22:47:00,39.0,31.4,30.29,NNE,22,14.3,21.9,74,0.00,CLR,,0.00,WeatherDisplay:10.37,2013-05-04 03:47:00,
2013-05-03 22:49:00,39.0,31.4,30.29,North,360,18.2,26.5,74,0.00,CLR,,0.00,WeatherDisplay:10.37,2013-05-04 03:49:00,
2013-05-03 22:51:00,39.0,31.7,30.29,NNE,22,15.5,24.2,75,0.00,CLR,,0.00,WeatherDisplay:10.37,2013-05-04 03:51:00,
2013-05-03 22:52:00,39.0,31.7,30.29,NNE,22,10.1,19.6,75,0.00,CLR,,0.00,WeatherDisplay:10.37,2013-05-04 03:52:00,
2013-05-03 22:53:00,39.0,31.7,30.29,NNE,22,7.8,12.7,75,0.00,CLR,,0.00,WeatherDisplay:10.37,2013-05-04 03:53:00,
2013-05-03 22:54:00,39.0,31.7,30.29,NE,45,11.0,15.0,75,0.00,CLR,,0.00,WeatherDisplay:10.37,2013-05-04 03:54:00,
2013-05-03 22:56:00,39.0,31.7,30.31,NNE,22,10.8,16.1,75,0.00,CLR,,0.00,WeatherDisplay:10.37,2013-05-04 03:56:00,
2013-05-03 22:57:00,39.0,31.7,30.31,ENE,67,14.4,19.6,75,0.00,CLR,,0.00,WeatherDisplay:10.37,2013-05-04 03:57:00,
2013-05-03 22:58:00,39.0,32.1,30.31,NNE,22,12.9,21.9,76,0.00,CLR,,0.00,WeatherDisplay:10.37,2013-05-04 03:58:00,
2013-05-03 23:00:00,39.0,32.1,30.31,NNW,337,9.9,15.0,76,0.00,CLR,,0.00,WeatherDisplay:10.37,2013-05-04 04:00:00,
2013-05-03 23:01:00,39.0,32.1,30.31,NNE,22,10.1,15.0,76,0.00,CLR,,0.00,WeatherDisplay:10.37,2013-05-04 04:01:00,
2013-05-03 23:06:00,39.0,32.1,30.31,North,360,15.0,19.6,76,0.00,CLR,,0.00,WeatherDisplay:10.37,2013-05-04 04:06:00,
2013-05-03 23:11:00,39.0,32.4,30.31,NNE,22,7.0,12.7,77,0.00,CLR,,0.00,WeatherDisplay:10.37,2013-05-04 04:11:00,
2013-05-03 23:12:00,39.0,32.4,30.31,NNE,22,10.0,15.0,77,0.00,CLR,,0.00,WeatherDisplay:10.37,2013-05-04 04:12:00,
2013-05-03 23:16:00,39.0,32.7,30.31,NNE,22,9.5,16.0,78,0.00,CLR,,0.00,WeatherDisplay:10.37,2013-05-04 04:16:00,
2013-05-03 23:17:00,39.0,32.7,30.31,NNE,22,12.1,19.6,78,0.00,CLR,,0.00,WeatherDisplay:10.37,2013-05-04 04:17:00,
2013-05-03 23:21:00,39.0,32.7,30.31,NNE,22,11.4,17.3,78,0.00,CLR,,0.00,WeatherDisplay:10.37,2013-05-04 04:21:00,
2013-05-03 23:22:00,39.0,32.7,30.31,NNE,22,9.6,15.0,78,0.00,CLR,,0.00,WeatherDisplay:10.37,2013-05-04 04:22:00,
2013-05-03 23:26:00,39.0,32.7,30.30,NNE,22,12.7,15.0,78,0.00,CLR,,0.00,WeatherDisplay:10.37,2013-05-04 04:26:00,
2013-05-03 23:27:00,39.0,32.7,30.30,NNE,22,11.1,15.0,78,0.00,CLR,,0.00,WeatherDisplay:10.37,2013-05-04 04:27:00,
2013-05-03 23:28:00,39.0,33.0,30.30,NNE,22,8.4,15.0,79,0.00,CLR,,0.00,WeatherDisplay:10.37,2013-05-04 04:28:00,
2013-05-03 23:31:00,39.0,33.4,30.30,North,360,10.6,15.0,80,0.00,CLR,,0.00,WeatherDisplay:10.37,2013-05-04 04:31:00,
2013-05-03 23:32:00,39.0,33.4,30.30,NNE,22,8.9,13.8,80,0.00,CLR,,0.00,WeatherDisplay:10.37,2013-05-04 04:32:00,
2013-05-03 23:33:00,39.0,33.4,30.30,NNE,22,10.6,15.0,80,0.00,CLR,,0.00,WeatherDisplay:10.37,2013-05-04 04:33:00,
2013-05-03 23:36:00,39.0,33.4,30.30,North,360,10.2,16.0,80,0.00,CLR,,0.00,WeatherDisplay:10.37,2013-05-04 04:36:00,
2013-05-03 23:37:00,39.0,33.7,30.30,NNE,22,13.1,17.3,81,0.00,CLR,,0.00,WeatherDisplay:10.37,2013-05-04 04:37:00,
2013-05-03 23:38:00,39.0,33.7,30.30,NNE,22,11.6,17.3,81,0.00,CLR,,0.00,WeatherDisplay:10.37,2013-05-04 04:38:00,
2013-05-03 23:39:00,39.0,33.7,30.30,NNE,22,15.8,19.6,81,0.00,CLR,,0.00,WeatherDisplay:10.37,2013-05-04 04:39:00,
2013-05-03 23:42:00,39.0,34.0,30.30,NNE,22,9.6,18.0,82,0.00,CLR,,0.00,WeatherDisplay:10.37,2013-05-04 04:42:00,
2013-05-03 23:43:00,39.0,34.0,30.30,NNE,22,8.8,18.4,82,0.00,CLR,,0.00,WeatherDisplay:10.37,2013-05-04 04:43:00,
2013-05-03 23:44:00,38.0,33.3,30.30,North,360,11.1,15.0,83,0.00,CLR,,0.00,WeatherDisplay:10.37,2013-05-04 04:44:00,
2013-05-03 23:47:00,38.0,33.3,30.29,NNE,22,12.7,19.6,83,0.00,CLR,,0.00,WeatherDisplay:10.37,2013-05-04 04:47:00,
2013-05-03 23:48:00,38.0,33.3,30.29,NNE,22,14.0,19.6,83,0.00,CLR,,0.00,WeatherDisplay:10.37,2013-05-04 04:48:00,
2013-05-03 23:49:00,38.0,33.6,30.29,NNE,22,12.9,19.6,84,0.00,CLR,,0.00,WeatherDisplay:10.37,2013-05-04 04:49:00,
2013-05-03 23:52:00,38.0,33.9,30.29,NNE,22,10.1,17.3,85,0.00,CLR,,0.00,WeatherDisplay:10.37,2013-05-04 04:52:00,
2013-05-03 23:53:00,38.0,33.9,30.29,NNE,22,10.7,13.8,85,0.00,CLR,,0.00,WeatherDisplay:10.37,2013-05-04 04:53:00,
2013-05-03 23:54:00,38.0,33.9,30.29,NNE,22,16.5,19.6,85,0.00,CLR,,0.00,WeatherDisplay:10.37,2013-05-04 04:54:00,
2013-05-03 23:57:00,38.0,33.9,30.29,NNE,22,14.1,19.6,85,0.00,CLR,,0.00,WeatherDisplay:10.37,2013-05-04 04:57:00,
2013-05-03 23:58:00,38.0,34.2,30.29,NNE,22,15.6,19.6,86,0.00,CLR,,0.00,WeatherDisplay:10.37,2013-05-04 04:58:00,
2013-05-03 23:59:00,38.0,34.2,30.29,NNE,22,17.9,24.2,86,0.00,CLR,,0.00,WeatherDisplay:10.37,2013-05-04 04:59:00,